Time,TemperatureF,DewpointF,PressureIn,WindDirection,WindDirectionDegrees,WindSpeedMPH,WindSpeedGustMPH,Humidity,HourlyPrecipIn,Conditions,Clouds,dailyrainin,SoftwareType,DateUTC
2013-07-03 00:01:00,70.7,38.6,30.06,South,186,2.7,2.7,31,0.00,,---,0.00,VWS V14.01,2013-07-03 06:01:00,
2013-07-03 00:02:00,70.5,39.3,30.06,South,186,2.2,3.1,32,0.00,,---,0.00,VWS V14.01,2013-07-03 06:02:00,
2013-07-03 00:04:00,70.3,39.1,30.06,South,187,3.6,3.6,32,0.00,,---,0.00,VWS V14.01,2013-07-03 06:04:00,
2013-07-03 00:06:00,70.5,38.5,30.06,South,187,3.1,3.6,31,0.00,,---,0.00,VWS V14.01,2013-07-03 06:06:00,
2013-07-03 00:08:00,70.7,37.8,30.06,SSW,197,5.4,5.8,30,0.00,,---,0.00,VWS V14.01,2013-07-03 06:08:00,
2013-07-03 00:10:00,70.9,37.9,30.06,SSW,201,5.4,5.8,30,0.00,,---,0.00,VWS V14.01,2013-07-03 06:10:00,
2013-07-03 00:12:00,71.2,38.2,30.06,SSW,197,4.9,5.8,30,0.00,,---,0.00,VWS V14.01,2013-07-03 06:12:00,
2013-07-03 00:13:00,71.2,38.2,30.06,SSW,198,3.6,5.8,30,0.00,,---,0.00,VWS V14.01,2013-07-03 06:13:00,
2013-07-03 00:15:00,71.4,37.5,30.06,SSW,195,5.4,5.8,29,0.00,,---,0.00,VWS V14.01,2013-07-03 06:15:00,
2013-07-03 00:17:00,71.6,37.7,30.06,SSW,194,3.6,5.8,29,0.00,,---,0.00,VWS V14.01,2013-07-03 06:17:00,
2013-07-03 00:18:00,71.8,37.8,30.06,SSW,205,5.4,5.8,29,0.00,,---,0.00,VWS V14.01,2013-07-03 06:18:00,
2013-07-03 00:22:00,72.0,38.0,30.06,SSW,198,3.6,5.8,29,0.00,,---,0.00,VWS V14.01,2013-07-03 06:22:00,
2013-07-03 00:23:00,72.0,38.0,30.06,SSW,193,4.0,5.8,29,0.00,,---,0.00,VWS V14.01,2013-07-03 06:23:00,
2013-07-03 00:24:00,71.8,37.0,30.06,SSW,194,5.8,5.8,28,0.00,,---,0.00,VWS V14.01,2013-07-03 06:24:00,
2013-07-03 00:26:00,71.8,37.0,30.06,SSW,193,5.4,6.3,28,0.00,,---,0.00,VWS V14.01,2013-07-03 06:26:00,
2013-07-03 00:28:00,71.8,37.8,30.06,SSW,209,3.6,6.3,29,0.00,,---,0.00,VWS V14.01,2013-07-03 06:28:00,
2013-07-03 00:30:00,71.6,37.7,30.06,South,181,4.0,4.0,29,0.00,,---,0.00,VWS V14.01,2013-07-03 06:30:00,
2013-07-03 00:31:00,71.6,37.7,30.06,South,178,4.0,4.5,29,0.00,,---,0.00,VWS V14.01,2013-07-03 06:31:00,
2013-07-03 00:33:00,71.4,37.5,30.06,SSW,194,4.0,5.8,29,0.00,,---,0.00,VWS V14.01,2013-07-03 06:33:00,
2013-07-03 00:34:00,71.2,37.4,30.06,SSW,200,3.6,5.8,29,0.00,,---,0.00,VWS V14.01,2013-07-03 06:34:00,
2013-07-03 00:36:00,71.1,38.1,30.06,South,185,2.2,5.8,30,0.00,,---,0.00,VWS V14.01,2013-07-03 06:36:00,
2013-07-03 00:38:00,70.9,37.9,30.06,South,190,3.1,5.8,30,0.00,,---,0.00,VWS V14.01,2013-07-03 06:38:00,
2013-07-03 00:40:00,70.7,37.8,30.06,South,188,2.2,5.8,30,0.00,,---,0.00,VWS V14.01,2013-07-03 06:40:00,
2013-07-03 00:41:00,70.5,37.6,30.06,South,184,4.0,5.8,30,0.00,,---,0.00,VWS V14.01,2013-07-03 06:41:00,
2013-07-03 00:43:00,70.5,37.6,30.06,South,181,3.1,5.8,30,0.00,,---,0.00,VWS V14.01,2013-07-03 06:43:00,
2013-07-03 00:44:00,70.5,37.6,30.06,SSW,197,2.7,5.8,30,0.00,,---,0.00,VWS V14.01,2013-07-03 06:44:00,
2013-07-03 00:45:00,70.5,37.6,30.06,SSW,194,3.6,3.6,30,0.00,,---,0.00,VWS V14.01,2013-07-03 06:45:00,
2013-07-03 00:48:00,70.5,36.8,30.06,SSW,200,3.6,4.0,29,0.00,,---,0.00,VWS V14.01,2013-07-03 06:48:00,
2013-07-03 00:49:00,70.7,36.9,30.06,SSW,193,3.1,4.0,29,0.00,,---,0.00,VWS V14.01,2013-07-03 06:49:00,
2013-07-03 00:50:00,70.7,36.0,30.06,SSW,194,3.6,4.0,28,0.00,,---,0.00,VWS V14.01,2013-07-03 06:50:00,
2013-07-03 00:53:00,71.1,36.3,30.06,SSW,202,3.6,4.9,28,0.00,,---,0.00,VWS V14.01,2013-07-03 06:53:00,
2013-07-03 00:55:00,71.2,36.5,30.06,SSW,199,3.1,4.9,28,0.00,,---,0.00,VWS V14.01,2013-07-03 06:55:00,
2013-07-03 00:59:00,71.4,35.7,30.06,SSW,198,3.1,4.9,27,0.00,,---,0.00,VWS V14.01,2013-07-03 06:59:00,
2013-07-03 01:00:00,71.6,35.9,30.06,SSW,194,3.6,4.0,27,0.00,,---,0.00,VWS V14.01,2013-07-03 07:00:00,
2013-07-03 01:01:00,71.6,35.9,30.06,SSW,194,3.1,4.0,27,0.00,,---,0.00,VWS V14.01,2013-07-03 07:01:00,
2013-07-03 01:04:00,71.6,34.9,30.06,SSW,196,2.7,4.0,26,0.00,,---,0.00,VWS V14.01,2013-07-03 07:04:00,
2013-07-03 01:06:00,71.6,34.9,30.06,SSW,196,0.0,4.0,26,0.00,,---,0.00,VWS V14.01,2013-07-03 07:06:00,
2013-07-03 01:07:00,71.6,35.9,30.06,SSW,196,0.0,4.0,27,0.00,,---,0.00,VWS V14.01,2013-07-03 07:07:00,
2013-07-03 01:09:00,71.6,34.9,30.06,SSW,196,2.2,4.0,26,0.00,,---,0.00,VWS V14.01,2013-07-03 07:09:00,
2013-07-03 01:12:00,71.6,35.9,30.06,SSW,196,0.0,4.0,27,0.00,,---,0.00,VWS V14.01,2013-07-03 07:12:00,
2013-07-03 01:15:00,71.4,35.7,30.06,SSW,196,0.0,4.0,27,0.00,,---,0.00,VWS V14.01,2013-07-03 07:15:00,
2013-07-03 01:16:00,71.1,35.4,30.06,SSW,196,0.0,0.0,27,0.00,,---,0.00,VWS V14.01,2013-07-03 07:16:00,
2013-07-03 01:17:00,70.9,35.3,30.06,SSW,196,0.0,0.0,27,0.00,,---,0.00,VWS V14.01,2013-07-03 07:17:00,
2013-07-03 01:20:00,70.7,36.0,30.06,SSW,196,0.0,0.0,28,0.00,,---,0.00,VWS V14.01,2013-07-03 07:20:00,
2013-07-03 01:21:00,70.7,36.0,30.06,SSW,196,0.0,0.0,28,0.00,,---,0.00,VWS V14.01,2013-07-03 07:21:00,
2013-07-03 01:23:00,70.5,35.9,30.06,SSW,196,0.0,0.0,28,0.00,,---,0.00,VWS V14.01,2013-07-03 07:23:00,
2013-07-03 01:24:00,70.3,35.7,30.06,SSW,196,0.0,0.0,28,0.00,,---,0.00,VWS V14.01,2013-07-03 07:24:00,
2013-07-03 01:25:00,70.3,36.6,30.06,SSW,196,0.0,0.0,29,0.00,,---,0.00,VWS V14.01,2013-07-03 07:25:00,
2013-07-03 01:26:00,70.2,36.5,30.06,SSW,196,0.0,0.0,29,0.00,,---,0.00,VWS V14.01,2013-07-03 07:26:00,
2013-07-03 01:29:00,69.8,37.0,30.06,SSW,196,0.0,2.2,30,0.00,,---,0.00,VWS V14.01,2013-07-03 07:29:00,
2013-07-03 01:30:00,69.8,37.0,30.06,SSW,196,0.0,2.2,30,0.00,,---,0.00,VWS V14.01,2013-07-03 07:30:00,
2013-07-03 01:32:00,69.4,37.5,30.06,SSW,196,0.0,0.0,31,0.00,,---,0.00,VWS V14.01,2013-07-03 07:32:00,
2013-07-03 01:35:00,69.3,38.2,30.06,SSW,196,0.0,0.0,32,0.00,,---,0.00,VWS V14.01,2013-07-03 07:35:00,
2013-07-03 01:36:00,69.4,38.3,30.06,SSW,196,0.0,0.0,32,0.00,,---,0.00,VWS V14.01,2013-07-03 07:36:00,
2013-07-03 01:37:00,69.4,38.3,30.06,SSW,196,0.0,0.0,32,0.00,,---,0.00,VWS V14.01,2013-07-03 07:37:00,
2013-07-03 01:38:00,69.6,38.5,30.06,SSW,196,0.0,0.0,32,0.00,,---,0.00,VWS V14.01,2013-07-03 07:38:00,
2013-07-03 01:40:00,70.2,38.1,30.06,SSW,196,0.0,0.0,31,0.00,,---,0.00,VWS V14.01,2013-07-03 07:40:00,
2013-07-03 01:41:00,70.3,38.3,30.06,SSW,196,0.0,0.0,31,0.00,,---,0.00,VWS V14.01,2013-07-03 07:41:00,
2013-07-03 01:42:00,71.1,38.9,30.06,SSW,196,0.0,0.0,31,0.00,,---,0.00,VWS V14.01,2013-07-03 07:42:00,
2013-07-03 01:43:00,71.2,39.1,30.06,SSW,196,2.7,2.7,31,0.00,,---,0.00,VWS V14.01,2013-07-03 07:43:00,
2013-07-03 01:45:00,71.6,39.4,30.06,SSW,196,0.0,0.0,31,0.00,,---,0.00,VWS V14.01,2013-07-03 07:45:00,
2013-07-03 01:46:00,71.8,38.7,30.06,SSW,196,0.0,0.0,30,0.00,,---,0.00,VWS V14.01,2013-07-03 07:46:00,
2013-07-03 01:48:00,72.3,39.2,30.06,SSW,196,0.0,2.7,30,0.00,,---,0.00,VWS V14.01,2013-07-03 07:48:00,
2013-07-03 01:49:00,72.5,38.5,30.06,SSW,196,2.7,2.7,29,0.00,,---,0.00,VWS V14.01,2013-07-03 07:49:00,
2013-07-03 01:50:00,72.7,37.7,30.06,SSW,196,0.0,2.7,28,0.00,,---,0.00,VWS V14.01,2013-07-03 07:50:00,
2013-07-03 01:53:00,73.2,38.2,30.06,SSW,196,0.0,2.7,28,0.00,,---,0.00,VWS V14.01,2013-07-03 07:53:00,
2013-07-03 01:54:00,73.4,37.4,30.06,SSW,196,0.0,2.7,27,0.00,,---,0.00,VWS V14.01,2013-07-03 07:54:00,
2013-07-03 01:55:00,73.8,37.7,30.06,SSW,196,0.0,2.7,27,0.00,,---,0.00,VWS V14.01,2013-07-03 07:55:00,
2013-07-03 01:56:00,73.8,37.7,30.06,SSW,196,0.0,2.7,27,0.00,,---,0.00,VWS V14.01,2013-07-03 07:56:00,
2013-07-03 01:58:00,73.9,36.9,30.06,SSW,196,0.0,2.7,26,0.00,,---,0.00,VWS V14.01,2013-07-03 07:58:00,
2013-07-03 01:59:00,74.1,38.0,30.06,SSW,196,0.0,2.7,27,0.00,,---,0.00,VWS V14.01,2013-07-03 07:59:00,
2013-07-03 02:01:00,74.3,38.2,30.06,SW,234,2.2,3.1,27,0.00,,---,0.00,VWS V14.01,2013-07-03 08:01:00,
2013-07-03 02:05:00,74.5,38.3,30.06,SW,221,3.1,4.0,27,0.00,,---,0.00,VWS V14.01,2013-07-03 08:05:00,
2013-07-03 02:06:00,74.8,39.6,30.06,SW,221,2.2,4.0,28,0.00,,---,0.00,VWS V14.01,2013-07-03 08:06:00,
2013-07-03 02:09:00,75.2,39.0,30.06,SW,221,0.0,4.0,27,0.00,,---,0.00,VWS V14.01,2013-07-03 08:09:00,
2013-07-03 02:10:00,75.2,39.0,30.06,SW,221,2.2,4.0,27,0.00,,---,0.00,VWS V14.01,2013-07-03 08:10:00,
2013-07-03 02:11:00,75.2,39.0,30.06,SW,221,2.7,4.0,27,0.00,,---,0.00,VWS V14.01,2013-07-03 08:11:00,
2013-07-03 02:14:00,75.4,39.1,30.06,SSW,194,0.0,4.0,27,0.00,,---,0.00,VWS V14.01,2013-07-03 08:14:00,
2013-07-03 02:15:00,75.4,39.1,30.06,SSW,194,0.0,4.0,27,0.00,,---,0.00,VWS V14.01,2013-07-03 08:15:00,
2013-07-03 02:16:00,75.6,39.3,30.06,SSW,194,0.0,0.0,27,0.00,,---,0.00,VWS V14.01,2013-07-03 08:16:00,
2013-07-03 02:17:00,75.6,39.3,30.06,SSW,194,0.0,0.0,27,0.00,,---,0.00,VWS V14.01,2013-07-03 08:17:00,
2013-07-03 02:18:00,75.6,38.3,30.06,SSW,194,0.0,0.0,26,0.00,,---,0.00,VWS V14.01,2013-07-03 08:18:00,
2013-07-03 02:20:00,75.7,39.4,30.06,SSW,194,0.0,0.0,27,0.00,,---,0.00,VWS V14.01,2013-07-03 08:20:00,
2013-07-03 02:23:00,75.6,38.3,30.06,SSW,194,0.0,0.0,26,0.00,,---,0.00,VWS V14.01,2013-07-03 08:23:00,
2013-07-03 02:25:00,75.6,39.3,30.06,SSW,194,0.0,0.0,27,0.00,,---,0.00,VWS V14.01,2013-07-03 08:25:00,
2013-07-03 02:28:00,75.2,39.0,30.06,SSW,194,0.0,0.0,27,0.00,,---,0.00,VWS V14.01,2013-07-03 08:28:00,
2013-07-03 02:30:00,75.0,39.7,30.06,SSW,194,0.0,0.0,28,0.00,,---,0.00,VWS V14.01,2013-07-03 08:30:00,
2013-07-03 02:31:00,75.0,39.7,30.06,SSW,194,0.0,0.0,28,0.00,,---,0.00,VWS V14.01,2013-07-03 08:31:00,
2013-07-03 02:35:00,75.0,39.7,30.06,NNW,336,0.0,4.0,28,0.00,,---,0.00,VWS V14.01,2013-07-03 08:35:00,
2013-07-03 02:36:00,75.0,39.7,30.06,NNW,336,0.0,4.0,28,0.00,,---,0.00,VWS V14.01,2013-07-03 08:36:00,
2013-07-03 02:39:00,75.0,39.7,30.06,NNW,336,0.0,4.0,28,0.00,,---,0.00,VWS V14.01,2013-07-03 08:39:00,
2013-07-03 02:40:00,75.0,40.6,30.06,NW,309,2.7,4.0,29,0.00,,---,0.00,VWS V14.01,2013-07-03 08:40:00,
2013-07-03 02:41:00,75.2,40.8,30.06,NW,315,3.6,4.0,29,0.00,,---,0.00,VWS V14.01,2013-07-03 08:41:00,
2013-07-03 02:42:00,75.2,39.9,30.06,WNW,300,0.0,4.0,28,0.00,,---,0.00,VWS V14.01,2013-07-03 08:42:00,
2013-07-03 02:44:00,75.4,40.0,30.06,NNW,330,0.0,4.0,28,0.00,,---,0.00,VWS V14.01,2013-07-03 08:44:00,
2013-07-03 02:45:00,75.6,41.1,30.06,WNW,291,0.0,4.0,29,0.00,,---,0.00,VWS V14.01,2013-07-03 08:45:00,
2013-07-03 02:47:00,75.7,40.3,30.06,SSW,212,2.7,2.7,28,0.00,,---,0.00,VWS V14.01,2013-07-03 08:47:00,
2013-07-03 02:50:00,75.9,40.5,30.06,NNW,332,0.0,4.0,28,0.00,,---,0.00,VWS V14.01,2013-07-03 08:50:00,
2013-07-03 02:51:00,75.9,40.5,30.06,South,171,4.9,4.9,28,0.00,,---,0.00,VWS V14.01,2013-07-03 08:51:00,
2013-07-03 02:53:00,76.1,40.7,30.06,South,188,0.0,4.9,28,0.00,,---,0.00,VWS V14.01,2013-07-03 08:53:00,
2013-07-03 02:54:00,76.3,40.8,30.06,SSW,210,0.0,4.9,28,0.00,,---,0.00,VWS V14.01,2013-07-03 08:54:00,
2013-07-03 02:55:00,76.5,41.0,30.06,SSW,210,0.0,4.9,28,0.00,,---,0.00,VWS V14.01,2013-07-03 08:55:00,
2013-07-03 02:57:00,76.5,41.0,30.06,SSW,210,2.2,4.9,28,0.00,,---,0.00,VWS V14.01,2013-07-03 08:57:00,
2013-07-03 02:58:00,76.3,40.8,30.06,SW,229,2.7,4.9,28,0.00,,---,0.00,VWS V14.01,2013-07-03 08:58:00,
2013-07-03 03:00:00,76.3,40.8,30.06,SW,229,0.0,4.9,28,0.00,,---,0.00,VWS V14.01,2013-07-03 09:00:00,
2013-07-03 03:01:00,76.3,40.8,30.06,SW,229,0.0,0.0,28,0.00,,---,0.00,VWS V14.01,2013-07-03 09:01:00,
2013-07-03 03:02:00,76.1,40.7,30.06,SW,229,0.0,0.0,28,0.00,,---,0.00,VWS V14.01,2013-07-03 09:02:00,
2013-07-03 03:03:00,76.1,40.7,30.06,SW,229,0.0,0.0,28,0.00,,---,0.00,VWS V14.01,2013-07-03 09:03:00,
2013-07-03 03:06:00,75.9,41.4,30.06,West,276,0.0,3.1,29,0.00,,---,0.00,VWS V14.01,2013-07-03 09:06:00,
2013-07-03 03:07:00,75.7,41.3,30.06,West,276,2.2,3.1,29,0.00,,---,0.00,VWS V14.01,2013-07-03 09:07:00,
2013-07-03 03:09:00,75.6,41.1,30.06,West,276,0.0,3.1,29,0.00,,---,0.00,VWS V14.01,2013-07-03 09:09:00,
2013-07-03 03:11:00,75.6,41.1,30.06,West,270,0.0,3.1,29,0.00,,---,0.00,VWS V14.01,2013-07-03 09:11:00,
2013-07-03 03:12:00,75.6,41.1,30.06,West,270,0.0,3.1,29,0.00,,---,0.00,VWS V14.01,2013-07-03 09:12:00,
2013-07-03 03:14:00,75.4,41.0,30.06,West,270,0.0,3.1,29,0.00,,---,0.00,VWS V14.01,2013-07-03 09:14:00,
2013-07-03 03:16:00,75.4,41.0,30.06,West,270,0.0,2.2,29,0.00,,---,0.00,VWS V14.01,2013-07-03 09:16:00,
2013-07-03 03:18:00,75.2,40.8,30.06,West,270,0.0,2.2,29,0.00,,---,0.00,VWS V14.01,2013-07-03 09:18:00,
2013-07-03 03:19:00,75.0,40.6,30.06,West,270,0.0,2.2,29,0.00,,---,0.00,VWS V14.01,2013-07-03 09:19:00,
2013-07-03 03:21:00,74.8,40.5,30.06,West,268,2.2,2.7,29,0.00,,---,0.00,VWS V14.01,2013-07-03 09:21:00,
2013-07-03 03:24:00,74.8,40.5,30.06,SW,228,2.7,4.5,29,0.00,,---,0.00,VWS V14.01,2013-07-03 09:24:00,
2013-07-03 03:25:00,75.0,40.6,30.06,SW,228,2.7,4.5,29,0.00,,---,0.00,VWS V14.01,2013-07-03 09:25:00,
2013-07-03 03:27:00,75.0,40.6,30.06,SW,228,2.7,4.5,29,0.00,,---,0.00,VWS V14.01,2013-07-03 09:27:00,
2013-07-03 03:30:00,75.2,39.9,30.06,SW,236,3.1,4.5,28,0.00,,---,0.00,VWS V14.01,2013-07-03 09:30:00,
2013-07-03 03:32:00,75.2,39.9,30.06,SW,222,3.6,4.0,28,0.00,,---,0.00,VWS V14.01,2013-07-03 09:32:00,
2013-07-03 03:33:00,75.4,40.0,30.06,SW,226,2.7,4.0,28,0.00,,---,0.00,VWS V14.01,2013-07-03 09:33:00,
2013-07-03 03:35:00,75.6,39.3,30.06,SW,236,4.0,4.0,27,0.00,,---,0.00,VWS V14.01,2013-07-03 09:35:00,
2013-07-03 03:37:00,75.6,39.3,30.06,WSW,243,2.7,4.0,27,0.00,,---,0.00,VWS V14.01,2013-07-03 09:37:00,
2013-07-03 03:38:00,75.7,39.4,30.06,SSW,213,3.6,4.0,27,0.00,,---,0.00,VWS V14.01,2013-07-03 09:38:00,
2013-07-03 03:40:00,75.9,39.6,30.06,SSW,204,5.8,5.8,27,0.00,,---,0.00,VWS V14.01,2013-07-03 09:40:00,
2013-07-03 03:41:00,76.1,39.7,30.06,SSW,207,3.1,5.8,27,0.00,,---,0.00,VWS V14.01,2013-07-03 09:41:00,
2013-07-03 03:44:00,76.3,39.9,30.06,West,265,2.7,5.8,27,0.00,,---,0.00,VWS V14.01,2013-07-03 09:44:00,
2013-07-03 03:45:00,76.5,40.0,30.06,WSW,253,2.7,5.4,27,0.00,,---,0.00,VWS V14.01,2013-07-03 09:45:00,
2013-07-03 03:46:00,76.5,40.0,30.06,SW,232,3.1,5.4,27,0.00,,---,0.00,VWS V14.01,2013-07-03 09:46:00,
2013-07-03 03:48:00,76.5,40.0,30.06,SW,215,5.8,5.8,27,0.00,,---,0.00,VWS V14.01,2013-07-03 09:48:00,
2013-07-03 03:50:00,76.5,39.1,30.06,SW,234,4.0,5.8,26,0.00,,---,0.00,VWS V14.01,2013-07-03 09:50:00,
2013-07-03 03:51:00,76.6,39.2,30.06,SSW,207,5.4,6.3,26,0.00,,---,0.00,VWS V14.01,2013-07-03 09:51:00,
2013-07-03 03:55:00,76.8,39.4,30.06,SW,232,3.1,6.3,26,0.00,,---,0.00,VWS V14.01,2013-07-03 09:55:00,
2013-07-03 03:56:00,76.8,39.4,30.06,SSW,201,3.6,6.3,26,0.00,,---,0.00,VWS V14.01,2013-07-03 09:56:00,
2013-07-03 04:00:00,76.8,39.4,30.06,SW,234,0.0,6.3,26,0.00,,---,0.00,VWS V14.01,2013-07-03 10:00:00,
2013-07-03 04:01:00,76.6,39.2,30.06,SSW,206,2.7,3.6,26,0.00,,---,0.00,VWS V14.01,2013-07-03 10:01:00,
2013-07-03 04:02:00,76.6,39.2,30.06,SSW,206,2.2,3.6,26,0.00,,---,0.00,VWS V14.01,2013-07-03 10:02:00,
2013-07-03 04:03:00,76.5,39.1,30.06,SSW,210,2.2,4.0,26,0.00,,---,0.00,VWS V14.01,2013-07-03 10:03:00,
2013-07-03 04:04:00,76.5,39.1,30.06,SSW,210,2.7,4.0,26,0.00,,---,0.00,VWS V14.01,2013-07-03 10:04:00,
2013-07-03 04:05:00,76.5,39.1,30.06,SSW,210,2.2,4.0,26,0.00,,---,0.00,VWS V14.01,2013-07-03 10:05:00,
2013-07-03 04:07:00,76.3,38.9,30.06,SSW,210,0.0,4.0,26,0.00,,---,0.00,VWS V14.01,2013-07-03 10:07:00,
2013-07-03 04:09:00,76.1,38.8,30.06,SW,217,0.0,4.0,26,0.00,,---,0.00,VWS V14.01,2013-07-03 10:09:00,
2013-07-03 04:10:00,75.9,39.6,30.06,SW,217,0.0,4.0,27,0.00,,---,0.00,VWS V14.01,2013-07-03 10:10:00,
2013-07-03 04:13:00,75.6,39.3,30.06,SW,217,2.7,4.0,27,0.00,,---,0.00,VWS V14.01,2013-07-03 10:13:00,
2013-07-03 04:14:00,75.4,39.1,30.06,SW,217,0.0,4.0,27,0.00,,---,0.00,VWS V14.01,2013-07-03 10:14:00,
2013-07-03 04:15:00,75.4,39.1,30.06,SW,217,0.0,0.0,27,0.00,,---,0.00,VWS V14.01,2013-07-03 10:15:00,
2013-07-03 04:19:00,75.2,39.0,30.06,SSW,205,2.2,3.1,27,0.00,,---,0.00,VWS V14.01,2013-07-03 10:19:00,
2013-07-03 04:20:00,75.0,39.7,30.06,SSW,205,0.0,3.1,28,0.00,,---,0.00,VWS V14.01,2013-07-03 10:20:00,
2013-07-03 04:23:00,74.7,39.4,30.06,SSW,206,2.7,3.1,28,0.00,,---,0.00,VWS V14.01,2013-07-03 10:23:00,
2013-07-03 04:24:00,74.7,39.4,30.06,SSW,199,3.1,3.6,28,0.00,,---,0.00,VWS V14.01,2013-07-03 10:24:00,
2013-07-03 04:25:00,74.7,39.4,30.06,SSW,207,3.6,3.6,28,0.00,,---,0.00,VWS V14.01,2013-07-03 10:25:00,
2013-07-03 04:26:00,74.7,39.4,30.06,SSW,201,3.1,3.6,28,0.00,,---,0.00,VWS V14.01,2013-07-03 10:26:00,
2013-07-03 04:28:00,74.7,39.4,30.06,SSW,201,2.7,3.6,28,0.00,,---,0.00,VWS V14.01,2013-07-03 10:28:00,
2013-07-03 04:30:00,74.8,39.6,30.06,SSW,201,0.0,3.6,28,0.00,,---,0.00,VWS V14.01,2013-07-03 10:30:00,
2013-07-03 04:32:00,74.7,39.4,30.06,SSW,201,0.0,0.0,28,0.00,,---,0.00,VWS V14.01,2013-07-03 10:32:00,
2013-07-03 04:35:00,74.1,39.9,30.06,SSW,201,0.0,0.0,29,0.00,,---,0.00,VWS V14.01,2013-07-03 10:35:00,
2013-07-03 04:36:00,74.1,39.9,30.06,SSW,201,0.0,0.0,29,0.00,,---,0.00,VWS V14.01,2013-07-03 10:36:00,
2013-07-03 04:37:00,73.9,39.7,30.06,SSW,201,0.0,0.0,29,0.00,,---,0.00,VWS V14.01,2013-07-03 10:37:00,
2013-07-03 04:41:00,73.9,39.7,30.06,SSW,197,0.0,3.1,29,0.00,,---,0.00,VWS V14.01,2013-07-03 10:41:00,
2013-07-03 04:42:00,73.9,39.7,30.06,SSW,197,3.1,3.1,29,0.00,,---,0.00,VWS V14.01,2013-07-03 10:42:00,
2013-07-03 04:43:00,73.9,39.7,30.06,SSW,197,0.0,3.1,29,0.00,,---,0.00,VWS V14.01,2013-07-03 10:43:00,
2013-07-03 04:45:00,73.8,39.5,30.06,SSW,196,4.0,4.0,29,0.00,,---,0.00,VWS V14.01,2013-07-03 10:45:00,
2013-07-03 04:47:00,73.8,40.4,30.06,SSW,199,0.0,4.0,30,0.00,,---,0.00,VWS V14.01,2013-07-03 10:47:00,
2013-07-03 04:48:00,73.6,40.3,30.06,SSW,199,0.0,4.0,30,0.00,,---,0.00,VWS V14.01,2013-07-03 10:48:00,
2013-07-03 04:49:00,73.6,40.3,30.06,SSW,199,2.7,4.0,30,0.00,,---,0.00,VWS V14.01,2013-07-03 10:49:00,
2013-07-03 04:52:00,73.6,40.3,30.06,SSW,197,2.7,4.0,30,0.00,,---,0.00,VWS V14.01,2013-07-03 10:52:00,
2013-07-03 04:53:00,73.6,40.3,30.06,SSW,197,2.7,4.0,30,0.00,,---,0.00,VWS V14.01,2013-07-03 10:53:00,
2013-07-03 04:54:00,73.6,39.4,30.06,SSW,197,2.7,4.0,29,0.00,,---,0.00,VWS V14.01,2013-07-03 10:54:00,
2013-07-03 04:56:00,73.6,39.4,30.06,SSW,197,2.7,4.0,29,0.00,,---,0.00,VWS V14.01,2013-07-03 10:56:00,
2013-07-03 04:57:00,73.6,39.4,30.06,SSW,197,3.6,4.0,29,0.00,,---,0.00,VWS V14.01,2013-07-03 10:57:00,
2013-07-03 04:58:00,73.6,40.3,30.06,SSW,202,2.7,4.0,30,0.00,,---,0.00,VWS V14.01,2013-07-03 10:58:00,
2013-07-03 05:01:00,73.4,40.1,30.06,SSW,202,2.7,2.7,30,0.00,,---,0.00,VWS V14.01,2013-07-03 11:01:00,
2013-07-03 05:02:00,73.2,40.0,30.06,SSW,202,0.0,2.7,30,0.00,,---,0.00,VWS V14.01,2013-07-03 11:02:00,
2013-07-03 05:04:00,73.0,40.6,30.09,SSW,202,2.2,2.7,31,0.00,,---,0.00,VWS V14.01,2013-07-03 11:04:00,
2013-07-03 05:06:00,72.9,39.7,30.09,West,260,0.0,3.6,30,0.00,,---,0.00,VWS V14.01,2013-07-03 11:06:00,
2013-07-03 05:07:00,72.9,39.7,30.09,West,260,2.7,3.6,30,0.00,,---,0.00,VWS V14.01,2013-07-03 11:07:00,
2013-07-03 05:09:00,72.9,39.7,30.09,West,260,0.0,3.6,30,0.00,,---,0.00,VWS V14.01,2013-07-03 11:09:00,
2013-07-03 05:10:00,72.9,39.7,30.09,WNW,295,2.7,3.6,30,0.00,,---,0.00,VWS V14.01,2013-07-03 11:10:00,
2013-07-03 05:13:00,72.9,39.7,30.09,WNW,295,0.0,3.6,30,0.00,,---,0.00,VWS V14.01,2013-07-03 11:13:00,
2013-07-03 05:14:00,72.7,39.5,30.09,WNW,295,0.0,3.6,30,0.00,,---,0.00,VWS V14.01,2013-07-03 11:14:00,
2013-07-03 05:16:00,72.5,40.2,30.09,WNW,295,0.0,0.0,31,0.00,,---,0.00,VWS V14.01,2013-07-03 11:16:00,
2013-07-03 05:18:00,72.3,40.0,30.09,WNW,295,0.0,0.0,31,0.00,,---,0.00,VWS V14.01,2013-07-03 11:18:00,
2013-07-03 05:20:00,72.3,40.0,30.09,WNW,295,0.0,0.0,31,0.00,,---,0.00,VWS V14.01,2013-07-03 11:20:00,
2013-07-03 05:21:00,72.1,39.9,30.09,WNW,295,0.0,0.0,31,0.00,,---,0.00,VWS V14.01,2013-07-03 11:21:00,
2013-07-03 05:23:00,72.0,39.7,30.09,WNW,295,0.0,0.0,31,0.00,,---,0.00,VWS V14.01,2013-07-03 11:23:00,
2013-07-03 05:24:00,72.0,39.7,30.09,WNW,295,0.0,0.0,31,0.00,,---,0.00,VWS V14.01,2013-07-03 11:24:00,
2013-07-03 05:26:00,71.8,39.5,30.09,WNW,295,0.0,0.0,31,0.00,,---,0.00,VWS V14.01,2013-07-03 11:26:00,
2013-07-03 05:27:00,71.6,39.4,30.09,WNW,295,0.0,0.0,31,0.00,,---,0.00,VWS V14.01,2013-07-03 11:27:00,
2013-07-03 05:28:00,71.4,40.0,30.09,WNW,295,0.0,0.0,32,0.00,,---,0.00,VWS V14.01,2013-07-03 11:28:00,
2013-07-03 05:29:00,71.2,39.9,30.09,WNW,295,0.0,0.0,32,0.00,,---,0.00,VWS V14.01,2013-07-03 11:29:00,
2013-07-03 05:31:00,71.1,39.7,30.09,WNW,295,0.0,0.0,32,0.00,,---,0.00,VWS V14.01,2013-07-03 11:31:00,
2013-07-03 05:34:00,70.9,39.6,30.09,SSE,149,2.7,3.1,32,0.00,,---,0.00,VWS V14.01,2013-07-03 11:34:00,
2013-07-03 05:35:00,70.5,40.1,30.09,SSE,148,0.0,3.1,33,0.00,,---,0.00,VWS V14.01,2013-07-03 11:35:00,
2013-07-03 05:36:00,69.8,39.4,30.09,South,180,0.0,3.1,33,0.00,,---,0.00,VWS V14.01,2013-07-03 11:36:00,
2013-07-03 05:40:00,68.7,39.2,30.09,South,180,0.0,3.1,34,0.00,,---,0.00,VWS V14.01,2013-07-03 11:40:00,
2013-07-03 05:41:00,68.5,39.1,30.09,SSE,166,2.2,3.1,34,0.00,,---,0.00,VWS V14.01,2013-07-03 11:41:00,
2013-07-03 05:42:00,68.5,39.1,30.09,SSE,166,0.0,3.1,34,0.00,,---,0.00,VWS V14.01,2013-07-03 11:42:00,
2013-07-03 05:45:00,68.0,39.3,30.09,SSE,162,0.0,3.1,35,0.00,,---,0.00,VWS V14.01,2013-07-03 11:45:00,
2013-07-03 05:46:00,68.0,39.3,30.09,SSE,159,2.7,2.7,35,0.00,,---,0.00,VWS V14.01,2013-07-03 11:46:00,
2013-07-03 05:47:00,67.8,39.9,30.09,SSE,156,0.0,2.7,36,0.00,,---,0.00,VWS V14.01,2013-07-03 11:47:00,
2013-07-03 05:51:00,67.5,41.0,30.09,South,181,2.7,3.1,38,0.00,,---,0.00,VWS V14.01,2013-07-03 11:51:00,
2013-07-03 05:53:00,67.3,40.8,30.09,South,181,0.0,3.1,38,0.00,,---,0.00,VWS V14.01,2013-07-03 11:53:00,
2013-07-03 05:56:00,67.3,40.8,30.09,South,181,0.0,3.1,38,0.00,,---,0.00,VWS V14.01,2013-07-03 11:56:00,
2013-07-03 05:58:00,67.3,40.8,30.09,South,181,2.7,3.1,38,0.00,,---,0.00,VWS V14.01,2013-07-03 11:58:00,
2013-07-03 05:59:00,67.3,41.5,30.09,South,179,0.0,3.1,39,0.00,,---,0.00,VWS V14.01,2013-07-03 11:59:00,
2013-07-03 06:02:00,67.3,40.8,30.09,South,179,0.0,0.0,38,0.00,,---,0.00,VWS V14.01,2013-07-03 12:02:00,
2013-07-03 06:04:00,67.3,40.8,30.09,South,179,0.0,0.0,38,0.00,,---,0.00,VWS V14.01,2013-07-03 12:04:00,
2013-07-03 06:05:00,67.3,40.8,30.09,South,183,2.2,2.7,38,0.00,,---,0.00,VWS V14.01,2013-07-03 12:05:00,
2013-07-03 06:07:00,67.3,40.8,30.09,South,185,3.6,3.6,38,0.00,,---,0.00,VWS V14.01,2013-07-03 12:07:00,
2013-07-03 06:09:00,67.5,41.7,30.09,South,185,0.0,3.6,39,0.00,,---,0.00,VWS V14.01,2013-07-03 12:09:00,
2013-07-03 06:11:00,67.5,41.0,30.09,South,184,0.0,3.6,38,0.00,,---,0.00,VWS V14.01,2013-07-03 12:11:00,
2013-07-03 06:12:00,67.5,41.0,30.09,South,184,0.0,3.6,38,0.00,,---,0.00,VWS V14.01,2013-07-03 12:12:00,
2013-07-03 06:14:00,67.6,41.2,30.09,South,184,0.0,3.6,38,0.00,,---,0.00,VWS V14.01,2013-07-03 12:14:00,
2013-07-03 06:16:00,67.8,39.9,30.09,SSW,197,3.1,4.0,36,0.00,,---,0.00,VWS V14.01,2013-07-03 12:16:00,
2013-07-03 06:17:00,68.2,40.9,30.09,SSW,196,2.2,4.0,37,0.00,,---,0.00,VWS V14.01,2013-07-03 12:17:00,
2013-07-03 06:19:00,68.4,38.9,30.09,SW,218,3.6,4.0,34,0.00,,---,0.00,VWS V14.01,2013-07-03 12:19:00,
2013-07-03 06:20:00,69.3,41.2,30.09,SSW,205,2.7,4.0,36,0.00,,---,0.00,VWS V14.01,2013-07-03 12:20:00,
2013-07-03 06:21:00,69.4,41.3,30.09,South,189,3.6,4.0,36,0.00,,---,0.00,VWS V14.01,2013-07-03 12:21:00,
2013-07-03 06:23:00,69.4,41.3,30.09,SSW,202,3.6,4.0,36,0.00,,---,0.00,VWS V14.01,2013-07-03 12:23:00,
2013-07-03 06:25:00,69.4,41.3,30.09,SSW,200,2.7,4.0,36,0.00,,---,0.00,VWS V14.01,2013-07-03 12:25:00,
2013-07-03 06:26:00,69.4,41.3,30.09,SSE,163,2.7,4.0,36,0.00,,---,0.00,VWS V14.01,2013-07-03 12:26:00,
2013-07-03 06:28:00,69.1,41.0,30.09,South,186,2.2,4.0,36,0.00,,---,0.00,VWS V14.01,2013-07-03 12:28:00,
2013-07-03 06:30:00,68.9,41.6,30.09,South,178,2.2,2.2,37,0.00,,---,0.00,VWS V14.01,2013-07-03 12:30:00,
2013-07-03 06:31:00,68.7,41.4,30.09,SSE,160,2.7,2.7,37,0.00,,---,0.00,VWS V14.01,2013-07-03 12:31:00,
2013-07-03 06:33:00,68.4,41.8,30.09,SSE,162,0.0,3.1,38,0.00,,---,0.00,VWS V14.01,2013-07-03 12:33:00,
2013-07-03 06:35:00,68.0,40.8,30.09,SSW,198,3.1,3.1,37,0.00,,---,0.00,VWS V14.01,2013-07-03 12:35:00,
2013-07-03 06:36:00,68.0,40.8,30.09,South,190,3.1,3.1,37,0.00,,---,0.00,VWS V14.01,2013-07-03 12:36:00,
2013-07-03 06:38:00,68.4,41.8,30.09,South,183,2.7,4.0,38,0.00,,---,0.00,VWS V14.01,2013-07-03 12:38:00,
2013-07-03 06:42:00,68.7,41.4,30.09,SSW,213,3.1,4.0,37,0.00,,---,0.00,VWS V14.01,2013-07-03 12:42:00,
2013-07-03 06:43:00,69.1,41.0,30.09,SSW,200,2.2,4.0,36,0.00,,---,0.00,VWS V14.01,2013-07-03 12:43:00,
2013-07-03 06:46:00,69.8,40.9,30.09,South,178,2.2,2.7,35,0.00,,---,0.00,VWS V14.01,2013-07-03 12:46:00,
2013-07-03 06:48:00,70.3,41.4,30.09,SW,215,2.2,5.4,35,0.00,,---,0.00,VWS V14.01,2013-07-03 12:48:00,
2013-07-03 06:49:00,70.3,41.4,30.09,SW,215,2.2,5.4,35,0.00,,---,0.00,VWS V14.01,2013-07-03 12:49:00,
2013-07-03 06:50:00,70.5,40.8,30.09,SW,216,0.0,5.4,34,0.00,,---,0.00,VWS V14.01,2013-07-03 12:50:00,
2013-07-03 06:52:00,70.9,40.4,30.09,SSW,203,2.7,5.4,33,0.00,,---,0.00,VWS V14.01,2013-07-03 12:52:00,
2013-07-03 06:53:00,70.9,40.4,30.09,SSW,209,3.1,5.4,33,0.00,,---,0.00,VWS V14.01,2013-07-03 12:53:00,
2013-07-03 06:54:00,71.1,40.5,30.09,West,273,2.7,5.4,33,0.00,,---,0.00,VWS V14.01,2013-07-03 12:54:00,
2013-07-03 06:57:00,71.8,40.4,30.09,WNW,297,2.7,5.4,32,0.00,,---,0.00,VWS V14.01,2013-07-03 12:57:00,
2013-07-03 06:58:00,71.8,40.4,30.09,WNW,297,0.0,5.4,32,0.00,,---,0.00,VWS V14.01,2013-07-03 12:58:00,
2013-07-03 06:59:00,72.0,40.5,30.09,WNW,297,0.0,5.4,32,0.00,,---,0.00,VWS V14.01,2013-07-03 12:59:00,
2013-07-03 07:03:00,72.5,41.0,30.09,SW,220,2.7,4.0,32,0.00,,---,0.00,VWS V14.01,2013-07-03 13:03:00,
2013-07-03 07:05:00,72.7,41.2,30.09,SW,229,0.0,4.0,32,0.00,,---,0.00,VWS V14.01,2013-07-03 13:05:00,
2013-07-03 07:08:00,73.2,40.8,30.09,NW,309,2.2,6.3,31,0.00,,---,0.00,VWS V14.01,2013-07-03 13:08:00,
2013-07-03 07:11:00,73.6,40.3,30.09,SSW,205,5.4,6.3,30,0.00,,---,0.00,VWS V14.01,2013-07-03 13:11:00,
2013-07-03 07:14:00,74.3,38.2,30.09,West,278,0.0,6.3,27,0.00,,---,0.00,VWS V14.01,2013-07-03 13:14:00,
2013-07-03 07:15:00,74.3,38.2,30.09,West,263,2.2,2.2,27,0.00,,---,0.00,VWS V14.01,2013-07-03 13:15:00,
2013-07-03 07:16:00,74.5,37.4,30.09,WSW,254,2.2,2.2,26,0.00,,---,0.00,VWS V14.01,2013-07-03 13:16:00,
2013-07-03 07:20:00,75.2,38.0,30.09,SW,234,3.6,4.0,26,0.00,,---,0.00,VWS V14.01,2013-07-03 13:20:00,
2013-07-03 07:21:00,75.2,37.0,30.09,SSW,203,2.7,4.0,25,0.00,,---,0.00,VWS V14.01,2013-07-03 13:21:00,
2013-07-03 07:26:00,75.4,37.2,30.09,SSW,204,3.1,4.9,25,0.00,,---,0.00,VWS V14.01,2013-07-03 13:26:00,
2013-07-03 07:31:00,75.4,37.2,30.09,SW,234,3.6,3.6,25,0.00,,---,0.00,VWS V14.01,2013-07-03 13:31:00,
2013-07-03 07:32:00,75.4,37.2,30.09,SW,234,3.1,3.6,25,0.00,,---,0.00,VWS V14.01,2013-07-03 13:32:00,
2013-07-03 07:37:00,75.7,36.4,30.09,SW,234,2.2,4.0,24,0.00,,---,0.00,VWS V14.01,2013-07-03 13:37:00,
2013-07-03 07:38:00,75.9,37.6,30.09,SW,233,0.0,4.0,25,0.00,,---,0.00,VWS V14.01,2013-07-03 13:38:00,
2013-07-03 07:39:00,75.9,37.6,30.09,SW,233,0.0,4.0,25,0.00,,---,0.00,VWS V14.01,2013-07-03 13:39:00,
2013-07-03 07:42:00,76.1,36.7,30.09,SSW,210,2.7,4.0,24,0.00,,---,0.00,VWS V14.01,2013-07-03 13:42:00,
2013-07-03 07:44:00,76.1,36.7,30.09,West,269,2.2,4.0,24,0.00,,---,0.00,VWS V14.01,2013-07-03 13:44:00,
2013-07-03 07:47:00,76.3,36.9,30.09,West,264,0.0,2.7,24,0.00,,---,0.00,VWS V14.01,2013-07-03 13:47:00,
2013-07-03 07:48:00,76.3,36.9,30.09,West,269,2.2,2.7,24,0.00,,---,0.00,VWS V14.01,2013-07-03 13:48:00,
2013-07-03 07:49:00,76.3,36.9,30.09,South,175,3.6,3.6,24,0.00,,---,0.00,VWS V14.01,2013-07-03 13:49:00,
2013-07-03 07:53:00,76.3,36.9,30.09,West,279,0.0,6.3,24,0.00,,---,0.00,VWS V14.01,2013-07-03 13:53:00,
2013-07-03 07:55:00,76.3,36.9,30.09,WSW,253,0.0,6.3,24,0.00,,---,0.00,VWS V14.01,2013-07-03 13:55:00,
2013-07-03 07:58:00,76.3,36.9,30.09,West,272,4.0,6.3,24,0.00,,---,0.00,VWS V14.01,2013-07-03 13:58:00,
2013-07-03 08:00:00,76.5,37.0,30.09,West,278,5.4,6.3,24,0.00,,---,0.00,VWS V14.01,2013-07-03 14:00:00,
2013-07-03 08:04:00,76.6,36.1,30.09,NW,310,2.2,6.3,23,0.00,,---,0.00,VWS V14.01,2013-07-03 14:04:00,
2013-07-03 08:05:00,76.8,37.3,30.09,WNW,288,4.0,6.3,24,0.00,,---,0.00,VWS V14.01,2013-07-03 14:05:00,
2013-07-03 08:06:00,76.8,37.3,30.09,WNW,288,4.0,6.3,24,0.00,,---,0.00,VWS V14.01,2013-07-03 14:06:00,
2013-07-03 08:09:00,77.2,36.5,30.09,WNW,296,0.0,6.3,23,0.00,,---,0.00,VWS V14.01,2013-07-03 14:09:00,
2013-07-03 08:10:00,77.2,36.5,30.09,West,279,3.1,6.3,23,0.00,,---,0.00,VWS V14.01,2013-07-03 14:10:00,
2013-07-03 08:11:00,77.4,36.7,30.09,West,279,2.7,6.3,23,0.00,,---,0.00,VWS V14.01,2013-07-03 14:11:00,
2013-07-03 08:14:00,77.5,36.8,30.09,West,281,0.0,6.3,23,0.00,,---,0.00,VWS V14.01,2013-07-03 14:14:00,
2013-07-03 08:15:00,77.5,36.8,30.09,West,270,3.1,3.1,23,0.00,,---,0.00,VWS V14.01,2013-07-03 14:15:00,
2013-07-03 08:16:00,77.5,36.8,30.09,West,271,2.7,3.1,23,0.00,,---,0.00,VWS V14.01,2013-07-03 14:16:00,
2013-07-03 08:20:00,77.5,36.8,30.09,NW,325,4.9,4.9,23,0.00,,---,0.00,VWS V14.01,2013-07-03 14:20:00,
2013-07-03 08:22:00,77.5,36.8,30.09,WNW,286,5.8,5.8,23,0.00,,---,0.00,VWS V14.01,2013-07-03 14:22:00,
2013-07-03 08:25:00,77.9,37.2,30.09,WNW,283,2.7,7.6,23,0.00,,---,0.00,VWS V14.01,2013-07-03 14:25:00,
2013-07-03 08:26:00,77.9,37.2,30.09,West,274,5.4,7.6,23,0.00,,---,0.00,VWS V14.01,2013-07-03 14:26:00,
2013-07-03 08:27:00,77.9,37.2,30.09,West,274,3.1,7.6,23,0.00,,---,0.00,VWS V14.01,2013-07-03 14:27:00,
2013-07-03 08:28:00,78.1,37.3,30.09,West,273,2.7,7.6,23,0.00,,---,0.00,VWS V14.01,2013-07-03 14:28:00,
2013-07-03 08:30:00,78.3,38.5,30.09,WNW,288,3.6,3.6,24,0.00,,---,0.00,VWS V14.01,2013-07-03 14:30:00,
2013-07-03 08:31:00,78.3,38.5,30.09,WNW,287,2.2,3.6,24,0.00,,---,0.00,VWS V14.01,2013-07-03 14:31:00,
2013-07-03 08:32:00,78.3,38.5,30.09,NW,310,3.6,3.6,24,0.00,,---,0.00,VWS V14.01,2013-07-03 14:32:00,
2013-07-03 08:35:00,78.4,37.6,30.09,West,276,3.1,5.8,23,0.00,,---,0.00,VWS V14.01,2013-07-03 14:35:00,
2013-07-03 08:37:00,78.4,38.7,30.09,NNW,336,2.7,5.8,24,0.00,,---,0.00,VWS V14.01,2013-07-03 14:37:00,
2013-07-03 08:38:00,78.6,37.8,30.09,NNW,343,4.0,5.8,23,0.00,,---,0.00,VWS V14.01,2013-07-03 14:38:00,
2013-07-03 08:41:00,78.8,37.9,30.09,NNW,327,3.6,5.8,23,0.00,,---,0.00,VWS V14.01,2013-07-03 14:41:00,
2013-07-03 08:42:00,79.0,38.1,30.09,WNW,298,5.8,5.8,23,0.00,,---,0.00,VWS V14.01,2013-07-03 14:42:00,
2013-07-03 08:47:00,79.2,38.2,30.09,NNW,343,4.0,4.9,23,0.00,,---,0.00,VWS V14.01,2013-07-03 14:47:00,
2013-07-03 08:48:00,79.3,38.4,30.12,WNW,297,6.3,6.3,23,0.00,,---,0.00,VWS V14.01,2013-07-03 14:48:00,
2013-07-03 08:52:00,79.5,38.5,30.12,WNW,297,3.6,6.3,23,0.00,,---,0.00,VWS V14.01,2013-07-03 14:52:00,
2013-07-03 08:53:00,79.5,38.5,30.12,NNW,341,5.4,6.3,23,0.00,,---,0.00,VWS V14.01,2013-07-03 14:53:00,
2013-07-03 08:57:00,79.7,37.5,30.12,WNW,286,8.1,8.1,22,0.00,,---,0.00,VWS V14.01,2013-07-03 14:57:00,
2013-07-03 08:58:00,79.7,36.3,30.12,NNW,340,4.9,8.1,21,0.00,,---,0.00,VWS V14.01,2013-07-03 14:58:00,
2013-07-03 08:59:00,79.7,36.3,30.12,NNW,340,4.9,8.1,21,0.00,,---,0.00,VWS V14.01,2013-07-03 14:59:00,
2013-07-03 09:03:00,79.9,37.7,30.12,NW,325,5.4,8.7,22,0.00,,---,0.00,VWS V14.01,2013-07-03 15:03:00,
2013-07-03 09:04:00,79.9,37.7,30.12,NW,311,3.6,8.7,22,0.00,,---,0.00,VWS V14.01,2013-07-03 15:04:00,
2013-07-03 09:05:00,80.1,37.8,30.12,NW,315,2.7,8.7,22,0.00,,---,0.00,VWS V14.01,2013-07-03 15:05:00,
2013-07-03 09:08:00,80.1,37.8,30.12,West,266,2.2,8.7,22,0.00,,---,0.00,VWS V14.01,2013-07-03 15:08:00,
2013-07-03 09:10:00,80.4,37.0,30.12,WNW,299,5.8,8.7,21,0.00,,---,0.00,VWS V14.01,2013-07-03 15:10:00,
2013-07-03 09:13:00,80.6,37.1,30.12,NNW,341,5.4,8.7,21,0.00,,---,0.00,VWS V14.01,2013-07-03 15:13:00,
2013-07-03 09:15:00,81.1,37.5,30.12,WNW,300,4.0,8.7,21,0.00,,---,0.00,VWS V14.01,2013-07-03 15:15:00,
2013-07-03 09:19:00,82.2,37.2,30.12,West,277,3.1,8.1,20,0.00,,---,0.00,VWS V14.01,2013-07-03 15:19:00,
2013-07-03 09:20:00,82.4,37.3,30.12,West,279,2.2,8.1,20,0.00,,---,0.00,VWS V14.01,2013-07-03 15:20:00,
2013-07-03 09:21:00,82.6,37.5,30.12,NW,308,3.6,8.1,20,0.00,,---,0.00,VWS V14.01,2013-07-03 15:21:00,
2013-07-03 09:25:00,82.9,37.8,30.12,WNW,282,3.1,8.1,20,0.00,,---,0.00,VWS V14.01,2013-07-03 15:25:00,
2013-07-03 09:26:00,83.1,37.9,30.12,NW,315,4.5,8.1,20,0.00,,---,0.00,VWS V14.01,2013-07-03 15:26:00,
2013-07-03 09:28:00,83.5,38.2,30.12,WNW,288,4.0,8.1,20,0.00,,---,0.00,VWS V14.01,2013-07-03 15:28:00,
2013-07-03 09:31:00,83.8,38.5,30.12,SW,216,4.5,6.3,20,0.00,,---,0.00,VWS V14.01,2013-07-03 15:31:00,
2013-07-03 09:32:00,83.8,38.5,30.12,West,267,3.1,6.3,20,0.00,,---,0.00,VWS V14.01,2013-07-03 15:32:00,
2013-07-03 09:34:00,84.0,38.7,30.12,NNW,335,3.1,6.3,20,0.00,,---,0.00,VWS V14.01,2013-07-03 15:34:00,
2013-07-03 09:36:00,84.2,37.5,30.12,WNW,300,6.3,8.1,19,0.00,,---,0.00,VWS V14.01,2013-07-03 15:36:00,
2013-07-03 09:37:00,84.2,37.5,30.12,WNW,297,3.1,8.1,19,0.00,,---,0.00,VWS V14.01,2013-07-03 15:37:00,
2013-07-03 09:38:00,84.0,37.4,30.12,West,277,5.4,8.1,19,0.00,,---,0.00,VWS V14.01,2013-07-03 15:38:00,
2013-07-03 09:41:00,83.8,37.2,30.12,NW,307,4.9,8.1,19,0.00,,---,0.00,VWS V14.01,2013-07-03 15:41:00,
2013-07-03 09:43:00,83.7,37.1,30.12,WNW,298,4.0,8.1,19,0.00,,---,0.00,VWS V14.01,2013-07-03 15:43:00,
2013-07-03 09:46:00,83.8,37.2,30.12,West,281,4.0,6.3,19,0.00,,---,0.00,VWS V14.01,2013-07-03 15:46:00,
2013-07-03 09:48:00,84.0,38.7,30.12,WNW,285,3.1,6.3,20,0.00,,---,0.00,VWS V14.01,2013-07-03 15:48:00,
2013-07-03 09:49:00,84.0,38.7,30.12,WNW,285,2.7,6.3,20,0.00,,---,0.00,VWS V14.01,2013-07-03 15:49:00,
2013-07-03 09:52:00,84.6,37.8,30.12,WNW,293,2.2,6.3,19,0.00,,---,0.00,VWS V14.01,2013-07-03 15:52:00,
2013-07-03 09:54:00,84.7,38.0,30.12,WSW,250,4.9,6.3,19,0.00,,---,0.00,VWS V14.01,2013-07-03 15:54:00,
2013-07-03 09:57:00,85.1,38.2,30.12,WNW,303,4.0,6.3,19,0.00,,---,0.00,VWS V14.01,2013-07-03 15:57:00,
2013-07-03 09:58:00,85.1,38.2,30.12,NNW,335,2.7,6.3,19,0.00,,---,0.00,VWS V14.01,2013-07-03 15:58:00,
2013-07-03 09:59:00,85.3,38.4,30.12,North,1,3.1,6.3,19,0.00,,---,0.00,VWS V14.01,2013-07-03 15:59:00,
2013-07-03 10:03:00,85.3,38.4,30.12,NW,307,3.6,6.3,19,0.00,,---,0.00,VWS V14.01,2013-07-03 16:03:00,
2013-07-03 10:04:00,85.3,38.4,30.12,NNE,24,4.0,6.3,19,0.00,,---,0.00,VWS V14.01,2013-07-03 16:04:00,
2013-07-03 10:05:00,85.5,38.5,30.12,WNW,286,2.7,6.3,19,0.00,,---,0.00,VWS V14.01,2013-07-03 16:05:00,
2013-07-03 10:09:00,85.1,36.9,30.12,WNW,287,4.0,8.3,18,0.00,,---,0.00,VWS V14.01,2013-07-03 16:09:00,
2013-07-03 10:10:00,84.9,36.7,30.12,NW,317,3.6,8.3,18,0.00,,---,0.00,VWS V14.01,2013-07-03 16:10:00,
2013-07-03 10:14:00,84.7,38.0,30.12,West,260,4.0,8.3,19,0.00,,---,0.00,VWS V14.01,2013-07-03 16:14:00,
2013-07-03 10:15:00,84.7,36.6,30.12,North,353,4.9,8.3,18,0.00,,---,0.00,VWS V14.01,2013-07-03 16:15:00,
2013-07-03 10:16:00,84.9,38.1,30.12,NW,325,4.0,5.4,19,0.00,,---,0.00,VWS V14.01,2013-07-03 16:16:00,
2013-07-03 10:19:00,84.9,38.1,30.12,NNW,336,3.6,6.3,19,0.00,,---,0.00,VWS V14.01,2013-07-03 16:19:00,
2013-07-03 10:20:00,85.1,38.2,30.12,North,0,5.8,6.3,19,0.00,,---,0.00,VWS V14.01,2013-07-03 16:20:00,
2013-07-03 10:21:00,85.1,38.2,30.12,NW,317,4.0,6.3,19,0.00,,---,0.00,VWS V14.01,2013-07-03 16:21:00,
2013-07-03 10:26:00,85.3,37.0,30.12,WNW,302,3.6,6.3,18,0.00,,---,0.00,VWS V14.01,2013-07-03 16:26:00,
2013-07-03 10:27:00,85.6,38.7,30.12,WNW,291,2.2,6.3,19,0.00,,---,0.00,VWS V14.01,2013-07-03 16:27:00,
2013-07-03 10:31:00,86.4,37.9,30.12,West,275,4.0,6.3,18,0.00,,---,0.00,VWS V14.01,2013-07-03 16:31:00,
2013-07-03 10:33:00,86.4,37.9,30.09,NNW,330,6.3,6.3,18,0.00,,---,0.00,VWS V14.01,2013-07-03 16:33:00,
2013-07-03 10:34:00,86.4,37.9,30.09,NNW,339,4.0,6.3,18,0.00,,---,0.00,VWS V14.01,2013-07-03 16:34:00,
2013-07-03 10:37:00,85.5,38.5,30.09,WNW,300,5.4,11.4,19,0.00,,---,0.00,VWS V14.01,2013-07-03 16:37:00,
2013-07-03 10:38:00,85.3,37.0,30.09,WNW,284,5.4,11.4,18,0.00,,---,0.00,VWS V14.01,2013-07-03 16:38:00,
2013-07-03 10:39:00,85.5,37.2,30.09,North,357,5.8,11.4,18,0.00,,---,0.00,VWS V14.01,2013-07-03 16:39:00,
2013-07-03 10:40:00,85.5,37.2,30.09,North,357,5.8,11.4,18,0.00,,---,0.00,VWS V14.01,2013-07-03 16:40:00,
2013-07-03 10:42:00,85.5,38.5,30.09,NW,317,5.8,11.4,19,0.00,,---,0.00,VWS V14.01,2013-07-03 16:42:00,
2013-07-03 10:44:00,85.6,37.3,30.09,WNW,299,2.7,11.4,18,0.00,,---,0.00,VWS V14.01,2013-07-03 16:44:00,
2013-07-03 10:46:00,86.0,37.6,30.09,NNW,330,5.8,5.8,18,0.00,,---,0.00,VWS V14.01,2013-07-03 16:46:00,
2013-07-03 10:47:00,85.8,37.5,30.09,NNW,333,4.9,5.8,18,0.00,,---,0.00,VWS V14.01,2013-07-03 16:47:00,
2013-07-03 10:49:00,85.5,34.2,30.09,WSW,248,4.9,5.8,16,0.00,,---,0.00,VWS V14.01,2013-07-03 16:49:00,
2013-07-03 10:51:00,85.1,36.9,30.09,West,279,4.0,5.8,18,0.00,,---,0.00,VWS V14.01,2013-07-03 16:51:00,
2013-07-03 10:53:00,84.9,36.7,30.09,WNW,300,6.3,6.3,18,0.00,,---,0.00,VWS V14.01,2013-07-03 16:53:00,
2013-07-03 10:55:00,84.9,36.7,30.09,WNW,303,3.6,6.3,18,0.00,,---,0.00,VWS V14.01,2013-07-03 16:55:00,
2013-07-03 10:56:00,84.7,36.6,30.09,NW,307,5.4,6.3,18,0.00,,---,0.00,VWS V14.01,2013-07-03 16:56:00,
2013-07-03 10:58:00,84.9,36.7,30.09,WNW,282,5.8,6.3,18,0.00,,---,0.00,VWS V14.01,2013-07-03 16:58:00,
2013-07-03 11:00:00,85.1,36.9,30.09,West,272,4.0,5.8,18,0.00,,---,0.00,VWS V14.01,2013-07-03 17:00:00,
2013-07-03 11:01:00,85.1,36.9,30.09,WNW,283,4.9,5.8,18,0.00,,---,0.00,VWS V14.01,2013-07-03 17:01:00,
2013-07-03 11:02:00,85.5,38.5,30.09,West,281,4.0,5.8,19,0.00,,---,0.00,VWS V14.01,2013-07-03 17:02:00,
2013-07-03 11:03:00,85.6,37.3,30.09,NNW,329,3.6,5.8,18,0.00,,---,0.00,VWS V14.01,2013-07-03 17:03:00,
2013-07-03 11:06:00,85.6,37.3,30.09,NW,308,4.0,7.2,18,0.00,,---,0.00,VWS V14.01,2013-07-03 17:06:00,
2013-07-03 11:07:00,85.6,34.3,30.09,North,353,4.9,7.2,16,0.00,,---,0.00,VWS V14.01,2013-07-03 17:07:00,
2013-07-03 11:08:00,85.5,37.2,30.09,West,277,5.8,7.2,18,0.00,,---,0.00,VWS V14.01,2013-07-03 17:08:00,
2013-07-03 11:11:00,85.3,37.0,30.09,NW,312,6.3,7.2,18,0.00,,---,0.00,VWS V14.01,2013-07-03 17:11:00,
2013-07-03 11:12:00,85.1,36.9,30.09,West,278,3.6,7.2,18,0.00,,---,0.00,VWS V14.01,2013-07-03 17:12:00,
2013-07-03 11:13:00,85.1,36.9,30.09,West,278,3.6,7.2,18,0.00,,---,0.00,VWS V14.01,2013-07-03 17:13:00,
2013-07-03 11:14:00,85.3,37.0,30.09,SW,223,3.1,7.2,18,0.00,,---,0.00,VWS V14.01,2013-07-03 17:14:00,
2013-07-03 11:16:00,85.3,38.4,30.09,WNW,283,3.6,3.6,19,0.00,,---,0.00,VWS V14.01,2013-07-03 17:16:00,
2013-07-03 11:18:00,85.6,37.3,30.09,NNW,327,3.6,4.9,18,0.00,,---,0.00,VWS V14.01,2013-07-03 17:18:00,
2013-07-03 11:19:00,85.6,37.3,30.09,WNW,296,3.6,4.9,18,0.00,,---,0.00,VWS V14.01,2013-07-03 17:19:00,
2013-07-03 11:20:00,85.8,37.5,30.09,WSW,253,4.0,5.8,18,0.00,,---,0.00,VWS V14.01,2013-07-03 17:20:00,
2013-07-03 11:21:00,85.8,37.5,30.09,WSW,253,4.0,5.8,18,0.00,,---,0.00,VWS V14.01,2013-07-03 17:21:00,
2013-07-03 11:24:00,86.2,37.8,30.09,NNW,343,3.6,5.8,18,0.00,,---,0.00,VWS V14.01,2013-07-03 17:24:00,
2013-07-03 11:25:00,86.2,37.8,30.09,NNW,330,3.6,5.8,18,0.00,,---,0.00,VWS V14.01,2013-07-03 17:25:00,
2013-07-03 11:26:00,86.2,37.8,30.09,NNE,32,7.6,7.6,18,0.00,,---,0.00,VWS V14.01,2013-07-03 17:26:00,
2013-07-03 11:27:00,86.2,34.8,30.09,NW,305,2.7,7.6,16,0.00,,---,0.00,VWS V14.01,2013-07-03 17:27:00,
2013-07-03 11:30:00,86.2,37.8,30.09,WNW,298,3.6,7.6,18,0.00,,---,0.00,VWS V14.01,2013-07-03 17:30:00,
2013-07-03 11:31:00,86.2,37.8,30.09,West,281,3.6,6.3,18,0.00,,---,0.00,VWS V14.01,2013-07-03 17:31:00,
2013-07-03 11:33:00,86.5,35.1,30.09,WNW,293,5.8,6.3,16,0.00,,---,0.00,VWS V14.01,2013-07-03 17:33:00,
2013-07-03 11:35:00,86.7,30.0,30.09,NW,305,4.0,6.3,13,0.00,,---,0.00,VWS V14.01,2013-07-03 17:35:00,
2013-07-03 11:36:00,86.9,35.3,30.09,West,270,3.6,6.3,16,0.00,,---,0.00,VWS V14.01,2013-07-03 17:36:00,
2013-07-03 11:38:00,86.9,30.2,30.09,NNW,331,6.3,6.3,13,0.00,,---,0.00,VWS V14.01,2013-07-03 17:38:00,
2013-07-03 11:40:00,87.1,30.3,30.09,WNW,286,4.0,6.3,13,0.00,,---,0.00,VWS V14.01,2013-07-03 17:40:00,
2013-07-03 11:41:00,87.1,30.3,30.09,WSW,253,2.7,6.3,13,0.00,,---,0.00,VWS V14.01,2013-07-03 17:41:00,
2013-07-03 11:44:00,87.1,30.3,30.09,WNW,287,5.8,7.6,13,0.00,,---,0.00,VWS V14.01,2013-07-03 17:44:00,
2013-07-03 11:45:00,87.1,30.3,30.09,WNW,294,3.6,7.6,13,0.00,,---,0.00,VWS V14.01,2013-07-03 17:45:00,
2013-07-03 11:47:00,87.3,30.5,30.09,NW,314,4.0,7.6,13,0.00,,---,0.00,VWS V14.01,2013-07-03 17:47:00,
2013-07-03 11:50:00,87.1,30.3,30.09,NW,321,3.1,7.6,13,0.00,,---,0.00,VWS V14.01,2013-07-03 17:50:00,
2013-07-03 11:53:00,86.9,30.2,30.09,North,353,5.8,7.6,13,0.00,,---,0.00,VWS V14.01,2013-07-03 17:53:00,
2013-07-03 11:55:00,86.7,30.0,30.09,North,0,8.3,10.5,13,0.00,,---,0.00,VWS V14.01,2013-07-03 17:55:00,
2013-07-03 11:56:00,86.5,29.9,30.09,NNW,345,6.3,10.5,13,0.00,,---,0.00,VWS V14.01,2013-07-03 17:56:00,
2013-07-03 11:58:00,86.5,29.9,30.09,WNW,294,3.6,10.5,13,0.00,,---,0.00,VWS V14.01,2013-07-03 17:58:00,
2013-07-03 12:01:00,86.7,30.0,30.09,NW,313,4.0,4.0,13,0.00,,---,0.00,VWS V14.01,2013-07-03 18:01:00,
2013-07-03 12:03:00,86.9,26.1,30.09,WNW,299,3.6,8.1,11,0.00,,---,0.00,VWS V14.01,2013-07-03 18:03:00,
2013-07-03 12:06:00,86.7,30.0,30.09,NE,41,5.4,8.1,13,0.00,,---,0.00,VWS V14.01,2013-07-03 18:06:00,
2013-07-03 12:07:00,86.7,30.0,30.09,North,353,8.7,8.7,13,0.00,,---,0.00,VWS V14.01,2013-07-03 18:07:00,
2013-07-03 12:10:00,86.7,30.0,30.09,WNW,293,3.6,8.7,13,0.00,,---,0.00,VWS V14.01,2013-07-03 18:10:00,
2013-07-03 12:11:00,86.9,30.2,30.09,WSW,257,3.1,8.7,13,0.00,,---,0.00,VWS V14.01,2013-07-03 18:11:00,
2013-07-03 12:12:00,86.9,30.2,30.09,WNW,298,3.6,8.7,13,0.00,,---,0.00,VWS V14.01,2013-07-03 18:12:00,
2013-07-03 12:16:00,86.5,29.9,30.09,WNW,285,5.4,7.2,13,0.00,,---,0.00,VWS V14.01,2013-07-03 18:16:00,
2013-07-03 12:17:00,86.4,29.8,30.09,WNW,291,4.9,7.2,13,0.00,,---,0.00,VWS V14.01,2013-07-03 18:17:00,
2013-07-03 12:18:00,86.4,29.8,30.09,NW,307,4.9,7.2,13,0.00,,---,0.00,VWS V14.01,2013-07-03 18:18:00,
2013-07-03 12:21:00,86.2,29.6,30.09,NW,323,0.0,7.2,13,0.00,,---,0.00,VWS V14.01,2013-07-03 18:21:00,
2013-07-03 12:22:00,86.2,29.6,30.09,WNW,290,3.1,7.2,13,0.00,,---,0.00,VWS V14.01,2013-07-03 18:22:00,
2013-07-03 12:23:00,86.2,29.6,30.09,NW,307,2.7,7.2,13,0.00,,---,0.00,VWS V14.01,2013-07-03 18:23:00,
2013-07-03 12:26:00,86.2,25.6,30.09,NNW,331,5.8,8.1,11,0.00,,---,0.00,VWS V14.01,2013-07-03 18:26:00,
2013-07-03 12:27:00,86.2,29.6,30.09,NW,315,3.6,8.1,13,0.00,,---,0.00,VWS V14.01,2013-07-03 18:27:00,
2013-07-03 12:28:00,86.2,25.6,30.09,NW,317,4.9,8.1,11,0.00,,---,0.00,VWS V14.01,2013-07-03 18:28:00,
2013-07-03 12:31:00,86.5,29.9,30.09,NW,318,4.9,5.8,13,0.00,,---,0.00,VWS V14.01,2013-07-03 18:31:00,
2013-07-03 12:32:00,86.5,29.9,30.09,NW,315,2.7,5.8,13,0.00,,---,0.00,VWS V14.01,2013-07-03 18:32:00,
2013-07-03 12:33:00,86.5,29.9,30.09,West,275,4.0,5.8,13,0.00,,---,0.00,VWS V14.01,2013-07-03 18:33:00,
2013-07-03 12:36:00,86.9,26.1,30.09,WNW,283,2.7,5.8,11,0.00,,---,0.00,VWS V14.01,2013-07-03 18:36:00,
2013-07-03 12:38:00,86.9,26.1,30.09,West,273,4.0,5.8,11,0.00,,---,0.00,VWS V14.01,2013-07-03 18:38:00,
2013-07-03 12:39:00,86.9,26.1,30.09,SW,224,3.1,5.8,11,0.00,,---,0.00,VWS V14.01,2013-07-03 18:39:00,
2013-07-03 12:42:00,87.1,30.3,30.09,North,357,5.4,5.8,13,0.00,,---,0.00,VWS V14.01,2013-07-03 18:42:00,
2013-07-03 12:43:00,87.1,26.3,30.09,NNW,340,7.6,8.7,11,0.00,,---,0.00,VWS V14.01,2013-07-03 18:43:00,
2013-07-03 12:44:00,87.1,30.3,30.09,NNW,334,4.0,8.7,13,0.00,,---,0.00,VWS V14.01,2013-07-03 18:44:00,
2013-07-03 12:48:00,87.3,26.4,30.09,North,350,4.5,6.3,11,0.00,,---,0.00,VWS V14.01,2013-07-03 18:48:00,
2013-07-03 12:49:00,87.3,26.4,30.09,NNW,342,2.7,6.3,11,0.00,,---,0.00,VWS V14.01,2013-07-03 18:49:00,
2013-07-03 12:50:00,87.3,30.5,30.09,NNW,342,2.7,6.3,13,0.00,,---,0.00,VWS V14.01,2013-07-03 18:50:00,
2013-07-03 12:54:00,87.1,30.3,30.09,NW,309,3.1,8.1,13,0.00,,---,0.00,VWS V14.01,2013-07-03 18:54:00,
2013-07-03 12:55:00,87.1,26.3,30.09,WNW,300,4.9,8.3,11,0.00,,---,0.00,VWS V14.01,2013-07-03 18:55:00,
2013-07-03 13:00:00,87.1,26.3,30.09,WNW,297,2.7,4.9,11,0.00,,---,0.00,VWS V14.01,2013-07-03 19:00:00,
2013-07-03 13:01:00,87.1,30.3,30.09,WNW,300,2.7,4.9,13,0.00,,---,0.00,VWS V14.01,2013-07-03 19:01:00,
2013-07-03 13:06:00,87.4,26.5,30.09,NNW,348,5.4,6.3,11,0.00,,---,0.00,VWS V14.01,2013-07-03 19:06:00,
2013-07-03 13:07:00,87.4,26.5,30.09,North,0,7.6,7.6,11,0.00,,---,0.00,VWS V14.01,2013-07-03 19:07:00,
2013-07-03 13:08:00,87.4,26.5,30.09,North,357,6.3,7.6,11,0.00,,---,0.00,VWS V14.01,2013-07-03 19:08:00,
2013-07-03 13:11:00,87.1,26.3,30.09,North,0,6.3,9.2,11,0.00,,---,0.00,VWS V14.01,2013-07-03 19:11:00,
2013-07-03 13:14:00,86.9,26.1,30.09,NNW,338,4.0,10.5,11,0.00,,---,0.00,VWS V14.01,2013-07-03 19:14:00,
2013-07-03 13:15:00,86.9,26.1,30.09,NW,305,3.6,10.5,11,0.00,,---,0.00,VWS V14.01,2013-07-03 19:15:00,
2013-07-03 13:16:00,86.9,30.2,30.09,West,273,6.3,6.3,13,0.00,,---,0.00,VWS V14.01,2013-07-03 19:16:00,
2013-07-03 13:17:00,87.1,30.3,30.09,NNW,329,7.2,7.2,13,0.00,,---,0.00,VWS V14.01,2013-07-03 19:17:00,
2013-07-03 13:20:00,87.1,26.3,30.09,WNW,297,5.8,7.6,11,0.00,,---,0.00,VWS V14.01,2013-07-03 19:20:00,
2013-07-03 13:21:00,87.1,26.3,30.09,West,271,3.6,7.6,11,0.00,,---,0.00,VWS V14.01,2013-07-03 19:21:00,
2013-07-03 13:22:00,87.1,30.3,30.09,West,261,3.1,7.6,13,0.00,,---,0.00,VWS V14.01,2013-07-03 19:22:00,
2013-07-03 13:25:00,87.3,26.4,30.09,WNW,299,3.1,7.6,11,0.00,,---,0.00,VWS V14.01,2013-07-03 19:25:00,
2013-07-03 13:27:00,87.4,30.6,30.09,NW,307,5.4,7.6,13,0.00,,---,0.00,VWS V14.01,2013-07-03 19:27:00,
2013-07-03 13:28:00,87.8,24.5,30.09,NW,323,8.1,8.1,10,0.00,,---,0.00,VWS V14.01,2013-07-03 19:28:00,
2013-07-03 13:30:00,87.8,24.5,30.09,North,0,4.0,5.4,10,0.00,,---,0.00,VWS V14.01,2013-07-03 19:30:00,
2013-07-03 13:32:00,87.6,26.7,30.09,WNW,286,4.0,6.3,11,0.00,,---,0.00,VWS V14.01,2013-07-03 19:32:00,
2013-07-03 13:34:00,87.4,26.5,30.09,North,0,4.0,7.2,11,0.00,,---,0.00,VWS V14.01,2013-07-03 19:34:00,
2013-07-03 13:36:00,87.4,26.5,30.09,WSW,241,5.8,7.2,11,0.00,,---,0.00,VWS V14.01,2013-07-03 19:36:00,
2013-07-03 13:38:00,87.4,26.5,30.09,NW,310,4.0,7.2,11,0.00,,---,0.00,VWS V14.01,2013-07-03 19:38:00,
2013-07-03 13:39:00,87.4,26.5,30.09,North,0,4.9,7.2,11,0.00,,---,0.00,VWS V14.01,2013-07-03 19:39:00,
2013-07-03 13:41:00,87.4,26.5,30.09,West,278,3.1,7.2,11,0.00,,---,0.00,VWS V14.01,2013-07-03 19:41:00,
2013-07-03 13:43:00,87.4,26.5,30.09,NW,320,4.0,7.2,11,0.00,,---,0.00,VWS V14.01,2013-07-03 19:43:00,
2013-07-03 13:45:00,87.6,26.7,30.09,NNW,342,4.0,7.2,11,0.00,,---,0.00,VWS V14.01,2013-07-03 19:45:00,
2013-07-03 13:47:00,87.4,26.5,30.09,NNW,341,4.0,5.4,11,0.00,,---,0.00,VWS V14.01,2013-07-03 19:47:00,
2013-07-03 13:48:00,87.4,26.5,30.09,NW,317,6.3,6.3,11,0.00,,---,0.00,VWS V14.01,2013-07-03 19:48:00,
2013-07-03 13:50:00,87.3,26.4,30.09,NW,325,2.7,6.3,11,0.00,,---,0.00,VWS V14.01,2013-07-03 19:50:00,
2013-07-03 13:52:00,87.3,26.4,30.09,North,0,3.6,6.3,11,0.00,,---,0.00,VWS V14.01,2013-07-03 19:52:00,
2013-07-03 13:53:00,87.4,26.5,30.09,West,278,4.9,6.3,11,0.00,,---,0.00,VWS V14.01,2013-07-03 19:53:00,
2013-07-03 13:56:00,87.8,24.5,30.09,NW,322,3.6,6.3,10,0.00,,---,0.00,VWS V14.01,2013-07-03 19:56:00,
2013-07-03 13:58:00,88.0,24.7,30.09,SW,218,6.3,8.1,10,0.00,,---,0.00,VWS V14.01,2013-07-03 19:58:00,
2013-07-03 13:59:00,88.0,24.7,30.09,WNW,287,3.6,8.1,10,0.00,,---,0.00,VWS V14.01,2013-07-03 19:59:00,
2013-07-03 14:01:00,88.2,24.8,30.09,NW,307,6.3,6.3,10,0.00,,---,0.00,VWS V14.01,2013-07-03 20:01:00,
2013-07-03 14:02:00,88.0,24.7,30.09,North,349,7.6,7.6,10,0.00,,---,0.00,VWS V14.01,2013-07-03 20:02:00,
2013-07-03 14:04:00,88.0,24.7,30.09,NW,313,3.1,7.6,10,0.00,,---,0.00,VWS V14.01,2013-07-03 20:04:00,
2013-07-03 14:07:00,87.6,26.7,30.09,WNW,285,6.3,7.6,11,0.00,,---,0.00,VWS V14.01,2013-07-03 20:07:00,
2013-07-03 14:09:00,87.6,26.7,30.09,West,275,5.8,8.1,11,0.00,,---,0.00,VWS V14.01,2013-07-03 20:09:00,
2013-07-03 14:10:00,87.6,26.7,30.09,NW,324,3.6,8.1,11,0.00,,---,0.00,VWS V14.01,2013-07-03 20:10:00,
2013-07-03 14:12:00,87.8,24.5,30.09,NW,313,8.1,8.1,10,0.00,,---,0.00,VWS V14.01,2013-07-03 20:12:00,
2013-07-03 14:14:00,87.6,26.7,30.09,WNW,298,3.6,8.1,11,0.00,,---,0.00,VWS V14.01,2013-07-03 20:14:00,
2013-07-03 14:16:00,87.4,26.5,30.09,WNW,291,4.0,5.4,11,0.00,,---,0.00,VWS V14.01,2013-07-03 20:16:00,
2013-07-03 14:17:00,87.4,26.5,30.09,West,277,4.0,5.4,11,0.00,,---,0.00,VWS V14.01,2013-07-03 20:17:00,
2013-07-03 14:18:00,87.4,26.5,30.09,SSW,195,3.6,5.4,11,0.00,,---,0.00,VWS V14.01,2013-07-03 20:18:00,
2013-07-03 14:20:00,87.6,26.7,30.09,WNW,292,3.1,9.6,11,0.00,,---,0.00,VWS V14.01,2013-07-03 20:20:00,
2013-07-03 14:21:00,87.6,26.7,30.09,WSW,256,3.6,9.6,11,0.00,,---,0.00,VWS V14.01,2013-07-03 20:21:00,
2013-07-03 14:22:00,87.8,24.5,30.09,North,0,3.1,9.6,10,0.00,,---,0.00,VWS V14.01,2013-07-03 20:22:00,
2013-07-03 14:23:00,87.8,24.5,30.09,NNW,340,3.1,9.6,10,0.00,,---,0.00,VWS V14.01,2013-07-03 20:23:00,
2013-07-03 14:26:00,88.0,24.7,30.09,West,280,4.0,9.6,10,0.00,,---,0.00,VWS V14.01,2013-07-03 20:26:00,
2013-07-03 14:27:00,88.2,24.8,30.09,WNW,286,2.2,9.6,10,0.00,,---,0.00,VWS V14.01,2013-07-03 20:27:00,
2013-07-03 14:29:00,88.2,24.8,30.09,WSW,244,2.7,9.6,10,0.00,,---,0.00,VWS V14.01,2013-07-03 20:29:00,
2013-07-03 14:32:00,88.5,25.1,30.09,West,270,4.0,5.4,10,0.00,,---,0.00,VWS V14.01,2013-07-03 20:32:00,
2013-07-03 14:34:00,88.7,25.2,30.09,NW,322,3.1,5.4,10,0.00,,---,0.00,VWS V14.01,2013-07-03 20:34:00,
2013-07-03 14:37:00,88.9,25.3,30.09,West,271,4.0,5.4,10,0.00,,---,0.00,VWS V14.01,2013-07-03 20:37:00,
2013-07-03 14:39:00,88.7,25.2,30.09,WNW,287,4.5,5.8,10,0.00,,---,0.00,VWS V14.01,2013-07-03 20:39:00,
2013-07-03 14:40:00,88.7,25.2,30.09,NW,325,3.6,5.8,10,0.00,,---,0.00,VWS V14.01,2013-07-03 20:40:00,
2013-07-03 14:42:00,88.5,25.1,30.09,WNW,297,3.6,5.8,10,0.00,,---,0.00,VWS V14.01,2013-07-03 20:42:00,
2013-07-03 14:43:00,88.5,25.1,30.09,SW,222,5.8,5.8,10,0.00,,---,0.00,VWS V14.01,2013-07-03 20:43:00,
2013-07-03 14:45:00,88.5,25.1,30.09,NNW,331,3.1,5.8,10,0.00,,---,0.00,VWS V14.01,2013-07-03 20:45:00,
2013-07-03 14:46:00,88.5,25.1,30.09,NW,322,5.8,5.8,10,0.00,,---,0.00,VWS V14.01,2013-07-03 20:46:00,
2013-07-03 14:47:00,88.5,25.1,30.09,WSW,248,4.0,5.8,10,0.00,,---,0.00,VWS V14.01,2013-07-03 20:47:00,
2013-07-03 14:48:00,88.3,24.9,30.09,WNW,290,5.8,5.8,10,0.00,,---,0.00,VWS V14.01,2013-07-03 20:48:00,
2013-07-03 14:50:00,88.2,24.8,30.09,NW,307,6.3,6.3,10,0.00,,---,0.00,VWS V14.01,2013-07-03 20:50:00,
2013-07-03 14:52:00,88.0,19.4,30.09,West,268,4.9,6.3,8,0.00,,---,0.00,VWS V14.01,2013-07-03 20:52:00,
2013-07-03 14:53:00,88.0,24.7,30.09,NW,325,3.6,6.3,10,0.00,,---,0.00,VWS V14.01,2013-07-03 20:53:00,
2013-07-03 14:55:00,87.6,26.7,30.09,NNW,333,4.5,7.6,11,0.00,,---,0.00,VWS V14.01,2013-07-03 20:55:00,
2013-07-03 14:57:00,87.4,26.5,30.09,NW,316,3.1,7.6,11,0.00,,---,0.00,VWS V14.01,2013-07-03 20:57:00,
2013-07-03 15:00:00,87.3,18.9,30.09,North,349,5.4,6.7,8,0.00,,---,0.00,VWS V14.01,2013-07-03 21:00:00,
2013-07-03 15:01:00,87.3,18.9,30.09,West,275,4.0,6.7,8,0.00,,---,0.00,VWS V14.01,2013-07-03 21:01:00,
2013-07-03 15:04:00,87.1,26.3,30.09,North,349,3.1,6.7,11,0.00,,---,0.00,VWS V14.01,2013-07-03 21:04:00,
2013-07-03 15:06:00,87.3,26.4,30.09,NW,323,3.6,6.7,11,0.00,,---,0.00,VWS V14.01,2013-07-03 21:06:00,
2013-07-03 15:11:00,87.4,19.0,30.09,WNW,295,3.1,6.7,8,0.00,,---,0.00,VWS V14.01,2013-07-03 21:11:00,
2013-07-03 15:17:00,87.3,18.9,30.09,NW,318,4.0,6.3,8,0.00,,---,0.00,VWS V14.01,2013-07-03 21:17:00,
2013-07-03 15:18:00,87.1,18.7,30.09,NNW,329,5.8,8.7,8,0.00,,---,0.00,VWS V14.01,2013-07-03 21:18:00,
2013-07-03 15:19:00,87.1,18.7,30.09,NNW,337,4.5,8.7,8,0.00,,---,0.00,VWS V14.01,2013-07-03 21:19:00,
2013-07-03 15:23:00,87.1,18.7,30.09,North,353,6.3,8.7,8,0.00,,---,0.00,VWS V14.01,2013-07-03 21:23:00,
2013-07-03 15:24:00,87.1,18.7,30.09,NNW,335,3.6,8.7,8,0.00,,---,0.00,VWS V14.01,2013-07-03 21:24:00,
2013-07-03 15:29:00,87.3,18.9,30.09,SW,232,4.0,8.7,8,0.00,,---,0.00,VWS V14.01,2013-07-03 21:29:00,
2013-07-03 15:30:00,87.4,19.0,30.09,WNW,303,3.6,3.6,8,0.00,,---,0.00,VWS V14.01,2013-07-03 21:30:00,
2013-07-03 15:32:00,87.4,26.5,30.09,North,7,3.6,4.9,11,0.00,,---,0.00,VWS V14.01,2013-07-03 21:32:00,
2013-07-03 15:34:00,87.4,19.0,30.09,NNE,16,4.0,5.4,8,0.00,,---,0.00,VWS V14.01,2013-07-03 21:34:00,
2013-07-03 15:35:00,87.4,19.0,30.09,NNW,334,6.3,6.3,8,0.00,,---,0.00,VWS V14.01,2013-07-03 21:35:00,
2013-07-03 15:36:00,87.4,19.0,30.09,NNE,32,3.6,6.3,8,0.00,,---,0.00,VWS V14.01,2013-07-03 21:36:00,
2013-07-03 15:39:00,87.3,18.9,30.09,North,357,5.8,6.7,8,0.00,,---,0.00,VWS V14.01,2013-07-03 21:39:00,
2013-07-03 15:40:00,87.3,18.9,30.09,West,281,3.6,8.3,8,0.00,,---,0.00,VWS V14.01,2013-07-03 21:40:00,
2013-07-03 15:41:00,87.1,18.7,30.09,NNW,336,3.1,8.3,8,0.00,,---,0.00,VWS V14.01,2013-07-03 21:41:00,
2013-07-03 15:44:00,87.1,18.7,30.09,NW,311,3.1,8.3,8,0.00,,---,0.00,VWS V14.01,2013-07-03 21:44:00,
2013-07-03 15:45:00,87.1,18.7,30.09,NW,313,2.7,2.7,8,0.00,,---,0.00,VWS V14.01,2013-07-03 21:45:00,
2013-07-03 15:46:00,87.1,18.7,30.09,NW,310,3.1,3.6,8,0.00,,---,0.00,VWS V14.01,2013-07-03 21:46:00,
2013-07-03 15:49:00,87.3,18.9,30.09,NNW,340,2.7,4.0,8,0.00,,---,0.00,VWS V14.01,2013-07-03 21:49:00,
2013-07-03 15:50:00,87.3,18.9,30.09,NNW,340,2.2,4.0,8,0.00,,---,0.00,VWS V14.01,2013-07-03 21:50:00,
2013-07-03 15:51:00,87.3,26.4,30.09,WNW,299,2.7,4.0,11,0.00,,---,0.00,VWS V14.01,2013-07-03 21:51:00,
2013-07-03 15:52:00,87.3,26.4,30.09,WNW,299,2.7,4.0,11,0.00,,---,0.00,VWS V14.01,2013-07-03 21:52:00,
2013-07-03 15:55:00,87.1,18.7,30.09,NNW,327,3.1,5.4,8,0.00,,---,0.00,VWS V14.01,2013-07-03 21:55:00,
2013-07-03 15:56:00,87.1,18.7,30.09,NNW,332,3.6,5.4,8,0.00,,---,0.00,VWS V14.01,2013-07-03 21:56:00,
2013-07-03 15:57:00,87.1,18.7,30.09,NW,324,3.6,5.4,8,0.00,,---,0.00,VWS V14.01,2013-07-03 21:57:00,
2013-07-03 16:00:00,86.9,18.6,30.09,NW,315,3.6,4.0,8,0.00,,---,0.00,VWS V14.01,2013-07-03 22:00:00,
2013-07-03 16:01:00,86.9,18.6,30.09,WNW,298,5.8,5.8,8,0.00,,---,0.00,VWS V14.01,2013-07-03 22:01:00,
2013-07-03 16:02:00,86.7,18.5,30.09,WNW,291,4.0,6.3,8,0.00,,---,0.00,VWS V14.01,2013-07-03 22:02:00,
2013-07-03 16:06:00,86.5,18.3,30.06,West,265,2.2,8.1,8,0.00,,---,0.00,VWS V14.01,2013-07-03 22:06:00,
2013-07-03 16:07:00,86.7,18.5,30.06,NNW,335,2.7,8.1,8,0.00,,---,0.00,VWS V14.01,2013-07-03 22:07:00,
2013-07-03 16:11:00,86.9,18.6,30.06,NW,310,0.0,8.1,8,0.00,,---,0.00,VWS V14.01,2013-07-03 22:11:00,
2013-07-03 16:12:00,87.1,18.7,30.06,West,268,4.9,8.1,8,0.00,,---,0.00,VWS V14.01,2013-07-03 22:12:00,
2013-07-03 16:14:00,87.1,18.7,30.06,North,357,2.7,8.1,8,0.00,,---,0.00,VWS V14.01,2013-07-03 22:14:00,
2013-07-03 16:17:00,87.1,18.7,30.06,WNW,289,4.0,6.3,8,0.00,,---,0.00,VWS V14.01,2013-07-03 22:17:00,
2013-07-03 16:18:00,86.9,18.6,30.06,NNE,25,2.7,6.3,8,0.00,,---,0.00,VWS V14.01,2013-07-03 22:18:00,
2013-07-03 16:19:00,87.1,18.7,30.06,SE,127,4.0,6.3,8,0.00,,---,0.00,VWS V14.01,2013-07-03 22:19:00,
2013-07-03 16:23:00,87.1,18.7,30.06,North,5,3.1,6.3,8,0.00,,---,0.00,VWS V14.01,2013-07-03 22:23:00,
2013-07-03 16:24:00,87.3,18.9,30.06,SW,214,2.7,6.3,8,0.00,,---,0.00,VWS V14.01,2013-07-03 22:24:00,
2013-07-03 16:28:00,87.4,19.0,30.06,NNW,332,4.9,6.3,8,0.00,,---,0.00,VWS V14.01,2013-07-03 22:28:00,
2013-07-03 16:29:00,87.4,19.0,30.06,NNE,15,2.7,6.3,8,0.00,,---,0.00,VWS V14.01,2013-07-03 22:29:00,
2013-07-03 16:34:00,87.8,19.2,30.06,North,357,3.1,3.6,8,0.00,,---,0.00,VWS V14.01,2013-07-03 22:34:00,
2013-07-03 16:36:00,88.0,19.4,30.06,West,273,3.6,4.9,8,0.00,,---,0.00,VWS V14.01,2013-07-03 22:36:00,
2013-07-03 16:39:00,88.2,19.5,30.06,West,281,3.1,6.3,8,0.00,,---,0.00,VWS V14.01,2013-07-03 22:39:00,
2013-07-03 16:41:00,88.2,19.5,30.06,NNW,327,3.6,6.3,8,0.00,,---,0.00,VWS V14.01,2013-07-03 22:41:00,
2013-07-03 16:44:00,88.0,19.4,30.06,SE,144,3.1,6.3,8,0.00,,---,0.00,VWS V14.01,2013-07-03 22:44:00,
2013-07-03 16:47:00,88.3,19.6,30.06,WNW,286,3.1,4.0,8,0.00,,---,0.00,VWS V14.01,2013-07-03 22:47:00,
2013-07-03 16:50:00,88.7,19.9,30.06,WNW,296,5.4,5.8,8,0.00,,---,0.00,VWS V14.01,2013-07-03 22:50:00,
2013-07-03 16:51:00,89.1,20.2,30.06,NNW,334,3.1,5.8,8,0.00,,---,0.00,VWS V14.01,2013-07-03 22:51:00,
2013-07-03 16:52:00,89.2,20.3,30.06,NNW,339,2.7,5.8,8,0.00,,---,0.00,VWS V14.01,2013-07-03 22:52:00,
2013-07-03 16:55:00,90.0,17.7,30.06,West,273,3.6,5.8,7,0.00,,---,0.00,VWS V14.01,2013-07-03 22:55:00,
2013-07-03 16:56:00,90.3,18.0,30.06,West,281,4.0,5.8,7,0.00,,---,0.00,VWS V14.01,2013-07-03 22:56:00,
2013-07-03 16:57:00,90.3,18.0,30.06,NW,308,2.7,5.8,7,0.00,,---,0.00,VWS V14.01,2013-07-03 22:57:00,
2013-07-03 17:00:00,90.5,18.1,30.06,West,275,3.6,3.6,7,0.00,,---,0.00,VWS V14.01,2013-07-03 23:00:00,
2013-07-03 17:01:00,90.3,18.0,30.06,NW,323,3.1,6.3,7,0.00,,---,0.00,VWS V14.01,2013-07-03 23:01:00,
2013-07-03 17:02:00,90.3,18.0,30.06,WNW,284,7.6,7.6,7,0.00,,---,0.00,VWS V14.01,2013-07-03 23:02:00,
2013-07-03 17:05:00,90.3,18.0,30.06,NW,320,3.6,7.6,7,0.00,,---,0.00,VWS V14.01,2013-07-03 23:05:00,
2013-07-03 17:07:00,90.3,18.0,30.06,NNW,328,3.1,7.6,7,0.00,,---,0.00,VWS V14.01,2013-07-03 23:07:00,
2013-07-03 17:10:00,90.7,18.2,30.06,NW,305,3.1,7.6,7,0.00,,---,0.00,VWS V14.01,2013-07-03 23:10:00,
2013-07-03 17:12:00,90.9,18.4,30.06,WNW,293,3.6,7.6,7,0.00,,---,0.00,VWS V14.01,2013-07-03 23:12:00,
2013-07-03 17:16:00,91.2,18.6,30.06,WNW,291,3.6,4.9,7,0.00,,---,0.00,VWS V14.01,2013-07-03 23:16:00,
2013-07-03 17:18:00,91.2,18.6,30.03,NNW,329,6.3,6.3,7,0.00,,---,0.00,VWS V14.01,2013-07-03 23:18:00,
2013-07-03 17:21:00,91.2,18.6,30.03,North,0,3.6,7.6,7,0.00,,---,0.00,VWS V14.01,2013-07-03 23:21:00,
2013-07-03 17:22:00,91.0,18.5,30.03,North,349,4.0,7.6,7,0.00,,---,0.00,VWS V14.01,2013-07-03 23:22:00,
2013-07-03 17:25:00,90.9,18.4,30.03,North,353,4.0,7.6,7,0.00,,---,0.00,VWS V14.01,2013-07-03 23:25:00,
2013-07-03 17:27:00,91.0,18.5,30.03,NNW,333,5.4,7.6,7,0.00,,---,0.00,VWS V14.01,2013-07-03 23:27:00,
2013-07-03 17:30:00,91.2,18.6,30.03,NW,322,3.1,7.6,7,0.00,,---,0.00,VWS V14.01,2013-07-03 23:30:00,
2013-07-03 17:32:00,90.9,18.4,30.03,West,271,4.0,6.3,7,0.00,,---,0.00,VWS V14.01,2013-07-03 23:32:00,
2013-07-03 17:33:00,91.0,18.5,30.03,NW,304,3.6,6.3,7,0.00,,---,0.00,VWS V14.01,2013-07-03 23:33:00,
2013-07-03 17:35:00,91.0,18.5,30.03,NW,307,6.3,6.3,7,0.00,,---,0.00,VWS V14.01,2013-07-03 23:35:00,
2013-07-03 17:38:00,91.2,18.6,30.03,NNW,334,8.1,8.1,7,0.00,,---,0.00,VWS V14.01,2013-07-03 23:38:00,
2013-07-03 17:40:00,91.0,18.5,30.03,West,270,3.6,8.1,7,0.00,,---,0.00,VWS V14.01,2013-07-03 23:40:00,
2013-07-03 17:41:00,91.0,18.5,30.03,West,263,4.9,8.1,7,0.00,,---,0.00,VWS V14.01,2013-07-03 23:41:00,
2013-07-03 17:44:00,90.9,18.4,30.03,West,273,3.6,8.1,7,0.00,,---,0.00,VWS V14.01,2013-07-03 23:44:00,
2013-07-03 17:45:00,90.7,18.2,30.03,WNW,288,4.0,4.0,7,0.00,,---,0.00,VWS V14.01,2013-07-03 23:45:00,
2013-07-03 17:46:00,90.7,18.2,30.03,WNW,288,4.0,4.0,7,0.00,,---,0.00,VWS V14.01,2013-07-03 23:46:00,
2013-07-03 17:49:00,90.9,18.4,30.03,North,0,5.4,6.3,7,0.00,,---,0.00,VWS V14.01,2013-07-03 23:49:00,
2013-07-03 17:51:00,90.7,18.2,30.03,NW,306,4.0,7.6,7,0.00,,---,0.00,VWS V14.01,2013-07-03 23:51:00,
2013-07-03 17:52:00,90.7,18.2,30.03,NW,306,4.0,7.6,7,0.00,,---,0.00,VWS V14.01,2013-07-03 23:52:00,
2013-07-03 17:55:00,90.7,18.2,30.03,WNW,292,6.3,7.6,7,0.00,,---,0.00,VWS V14.01,2013-07-03 23:55:00,
2013-07-03 17:56:00,90.5,18.1,30.03,NW,326,2.7,7.6,7,0.00,,---,0.00,VWS V14.01,2013-07-03 23:56:00,
2013-07-03 17:57:00,90.3,18.0,30.03,NW,312,2.7,7.6,7,0.00,,---,0.00,VWS V14.01,2013-07-03 23:57:00,
2013-07-03 18:01:00,90.0,17.7,30.03,WNW,295,4.0,5.8,7,0.00,,---,0.00,VWS V14.01,2013-07-04 00:01:00,
2013-07-03 18:02:00,90.0,17.7,30.03,WNW,301,4.0,5.8,7,0.00,,---,0.00,VWS V14.01,2013-07-04 00:02:00,
2013-07-03 18:03:00,90.0,17.7,30.03,West,280,5.4,5.8,7,0.00,,---,0.00,VWS V14.01,2013-07-04 00:03:00,
2013-07-03 18:07:00,89.8,17.6,30.03,WNW,283,3.6,8.3,7,0.00,,---,0.00,VWS V14.01,2013-07-04 00:07:00,
2013-07-03 18:09:00,89.6,17.5,30.03,WNW,291,4.9,8.3,7,0.00,,---,0.00,VWS V14.01,2013-07-04 00:09:00,
2013-07-03 18:10:00,89.6,17.5,30.03,SW,221,3.1,8.3,7,0.00,,---,0.00,VWS V14.01,2013-07-04 00:10:00,
2013-07-03 18:12:00,89.6,17.5,30.03,NW,304,4.5,8.3,7,0.00,,---,0.00,VWS V14.01,2013-07-04 00:12:00,
2013-07-03 18:15:00,89.4,20.4,30.03,NW,322,3.6,3.6,8,0.00,,---,0.00,VWS V14.01,2013-07-04 00:15:00,
2013-07-03 18:16:00,89.4,20.4,30.03,NW,317,3.1,3.6,8,0.00,,---,0.00,VWS V14.01,2013-07-04 00:16:00,
2013-07-03 18:18:00,89.4,20.4,30.03,WNW,294,3.1,5.4,8,0.00,,---,0.00,VWS V14.01,2013-07-04 00:18:00,
2013-07-03 18:19:00,89.2,20.3,30.03,North,349,3.6,7.2,8,0.00,,---,0.00,VWS V14.01,2013-07-04 00:19:00,
2013-07-03 18:20:00,89.1,20.2,30.03,NW,325,2.7,7.2,8,0.00,,---,0.00,VWS V14.01,2013-07-04 00:20:00,
2013-07-03 18:21:00,89.1,20.2,30.03,NW,326,2.7,7.2,8,0.00,,---,0.00,VWS V14.01,2013-07-04 00:21:00,
2013-07-03 18:24:00,88.2,19.5,30.03,WNW,299,3.1,7.2,8,0.00,,---,0.00,VWS V14.01,2013-07-04 00:24:00,
2013-07-03 18:25:00,88.0,19.4,30.03,North,353,4.9,7.2,8,0.00,,---,0.00,VWS V14.01,2013-07-04 00:25:00,
2013-07-03 18:26:00,88.0,19.4,30.03,North,353,4.9,7.2,8,0.00,,---,0.00,VWS V14.01,2013-07-04 00:26:00,
2013-07-03 18:27:00,87.8,19.2,30.03,West,272,6.3,7.2,8,0.00,,---,0.00,VWS V14.01,2013-07-04 00:27:00,
2013-07-03 18:29:00,87.6,19.1,30.03,North,353,4.9,7.2,8,0.00,,---,0.00,VWS V14.01,2013-07-04 00:29:00,
2013-07-03 18:32:00,87.3,18.9,30.03,North,353,3.1,5.8,8,0.00,,---,0.00,VWS V14.01,2013-07-04 00:32:00,
2013-07-03 18:34:00,87.1,18.7,30.03,North,353,2.2,5.8,8,0.00,,---,0.00,VWS V14.01,2013-07-04 00:34:00,
2013-07-03 18:37:00,87.1,18.7,30.03,NNE,17,2.7,5.8,8,0.00,,---,0.00,VWS V14.01,2013-07-04 00:37:00,
2013-07-03 18:38:00,87.1,18.7,30.03,North,0,2.7,5.8,8,0.00,,---,0.00,VWS V14.01,2013-07-04 00:38:00,
2013-07-03 18:41:00,87.6,19.1,30.03,NNE,28,4.0,5.8,8,0.00,,---,0.00,VWS V14.01,2013-07-04 00:41:00,
2013-07-03 18:42:00,87.8,19.2,30.03,North,0,4.9,5.8,8,0.00,,---,0.00,VWS V14.01,2013-07-04 00:42:00,
2013-07-03 18:43:00,88.0,19.4,30.03,North,353,4.9,6.3,8,0.00,,---,0.00,VWS V14.01,2013-07-04 00:43:00,
2013-07-03 18:47:00,88.2,19.5,30.03,West,267,3.6,5.8,8,0.00,,---,0.00,VWS V14.01,2013-07-04 00:47:00,
2013-07-03 18:48:00,88.2,19.5,30.00,WNW,287,3.1,5.8,8,0.00,,---,0.00,VWS V14.01,2013-07-04 00:48:00,
2013-07-03 18:52:00,88.2,19.5,30.00,North,9,5.8,5.8,8,0.00,,---,0.00,VWS V14.01,2013-07-04 00:52:00,
2013-07-03 18:53:00,88.2,19.5,30.00,NNW,343,4.0,5.8,8,0.00,,---,0.00,VWS V14.01,2013-07-04 00:53:00,
2013-07-03 18:54:00,88.2,19.5,30.00,NNW,343,4.0,5.8,8,0.00,,---,0.00,VWS V14.01,2013-07-04 00:54:00,
2013-07-03 18:58:00,88.0,19.4,30.00,North,353,3.1,5.8,8,0.00,,---,0.00,VWS V14.01,2013-07-04 00:58:00,
2013-07-03 18:59:00,88.0,19.4,30.00,North,353,4.0,5.8,8,0.00,,---,0.00,VWS V14.01,2013-07-04 00:59:00,
2013-07-03 19:04:00,87.8,19.2,30.00,North,3,4.0,5.8,8,0.00,,---,0.00,VWS V14.01,2013-07-04 01:04:00,
2013-07-03 19:05:00,87.6,19.1,30.00,NNW,328,2.2,5.8,8,0.00,,---,0.00,VWS V14.01,2013-07-04 01:05:00,
2013-07-03 19:09:00,87.3,18.9,30.00,NNW,332,3.6,5.8,8,0.00,,---,0.00,VWS V14.01,2013-07-04 01:09:00,
2013-07-03 19:11:00,86.9,18.6,30.00,NW,320,3.6,5.8,8,0.00,,---,0.00,VWS V14.01,2013-07-04 01:11:00,
2013-07-03 19:12:00,86.9,18.6,30.00,NW,320,3.6,5.8,8,0.00,,---,0.00,VWS V14.01,2013-07-04 01:12:00,
2013-07-03 19:14:00,86.7,18.5,30.00,NW,313,3.6,5.8,8,0.00,,---,0.00,VWS V14.01,2013-07-04 01:14:00,
2013-07-03 19:18:00,86.4,18.2,30.00,NW,310,2.7,4.0,8,0.00,,---,0.00,VWS V14.01,2013-07-04 01:18:00,
2013-07-03 19:19:00,86.2,18.0,30.00,NW,304,3.1,4.0,8,0.00,,---,0.00,VWS V14.01,2013-07-04 01:19:00,
2013-07-03 19:23:00,86.0,17.9,30.00,NW,324,3.6,4.0,8,0.00,,---,0.00,VWS V14.01,2013-07-04 01:23:00,
2013-07-03 19:24:00,86.0,17.9,30.00,NW,317,4.0,4.9,8,0.00,,---,0.00,VWS V14.01,2013-07-04 01:24:00,
2013-07-03 19:28:00,85.6,17.6,30.00,NW,312,3.6,8.3,8,0.00,,---,0.00,VWS V14.01,2013-07-04 01:28:00,
2013-07-03 19:29:00,85.5,17.5,30.00,NW,310,2.7,8.3,8,0.00,,---,0.00,VWS V14.01,2013-07-04 01:29:00,
2013-07-03 19:31:00,85.5,17.5,30.00,NW,318,2.2,4.0,8,0.00,,---,0.00,VWS V14.01,2013-07-04 01:31:00,
2013-07-03 19:32:00,85.3,17.4,30.00,WNW,299,3.1,4.0,8,0.00,,---,0.00,VWS V14.01,2013-07-04 01:32:00,
2013-07-03 19:33:00,85.3,17.4,30.00,NW,320,2.7,4.0,8,0.00,,---,0.00,VWS V14.01,2013-07-04 01:33:00,
2013-07-03 19:36:00,85.3,17.4,30.00,NW,309,4.9,4.9,8,0.00,,---,0.00,VWS V14.01,2013-07-04 01:36:00,
2013-07-03 19:38:00,85.3,17.4,30.00,NNW,332,3.1,4.9,8,0.00,,---,0.00,VWS V14.01,2013-07-04 01:38:00,
2013-07-03 19:39:00,85.1,17.2,30.00,NNW,340,3.1,5.4,8,0.00,,---,0.00,VWS V14.01,2013-07-04 01:39:00,
2013-07-03 19:41:00,85.1,17.2,30.00,NNW,327,4.9,5.4,8,0.00,,---,0.00,VWS V14.01,2013-07-04 01:41:00,
2013-07-03 19:43:00,85.1,17.2,30.00,NNW,332,2.7,5.4,8,0.00,,---,0.00,VWS V14.01,2013-07-04 01:43:00,
2013-07-03 19:44:00,84.9,17.1,30.00,NNW,329,4.0,5.4,8,0.00,,---,0.00,VWS V14.01,2013-07-04 01:44:00,
2013-07-03 19:46:00,84.9,17.1,30.00,NW,319,4.0,4.0,8,0.00,,---,0.00,VWS V14.01,2013-07-04 01:46:00,
2013-07-03 19:48:00,84.7,17.0,30.00,NW,307,3.6,4.0,8,0.00,,---,0.00,VWS V14.01,2013-07-04 01:48:00,
2013-07-03 19:49:00,84.7,17.0,30.00,NW,320,4.0,4.0,8,0.00,,---,0.00,VWS V14.01,2013-07-04 01:49:00,
2013-07-03 19:50:00,84.7,17.0,30.00,NW,307,3.1,4.0,8,0.00,,---,0.00,VWS V14.01,2013-07-04 01:50:00,
2013-07-03 19:52:00,84.6,16.9,30.00,NW,318,3.1,4.0,8,0.00,,---,0.00,VWS V14.01,2013-07-04 01:52:00,
2013-07-03 19:53:00,84.6,16.9,30.00,NW,314,2.7,4.0,8,0.00,,---,0.00,VWS V14.01,2013-07-04 01:53:00,
2013-07-03 19:55:00,84.4,16.7,30.00,NW,315,3.1,5.4,8,0.00,,---,0.00,VWS V14.01,2013-07-04 01:55:00,
2013-07-03 19:57:00,84.4,16.7,30.00,NW,312,3.6,5.4,8,0.00,,---,0.00,VWS V14.01,2013-07-04 01:57:00,
2013-07-03 20:00:00,84.2,16.6,30.00,NW,319,2.7,5.4,8,0.00,,---,0.00,VWS V14.01,2013-07-04 02:00:00,
2013-07-03 20:03:00,84.2,16.6,30.00,WNW,294,2.7,3.6,8,0.00,,---,0.00,VWS V14.01,2013-07-04 02:03:00,
2013-07-03 20:05:00,84.0,19.2,30.00,NW,317,2.7,3.6,9,0.00,,---,0.00,VWS V14.01,2013-07-04 02:05:00,
2013-07-03 20:06:00,84.0,19.2,30.00,NW,315,2.7,3.6,9,0.00,,---,0.00,VWS V14.01,2013-07-04 02:06:00,
2013-07-03 20:08:00,83.8,19.0,30.00,NW,310,3.1,3.6,9,0.00,,---,0.00,VWS V14.01,2013-07-04 02:08:00,
2013-07-03 20:10:00,83.7,18.9,30.00,WNW,302,3.1,4.0,9,0.00,,---,0.00,VWS V14.01,2013-07-04 02:10:00,
2013-07-03 20:11:00,83.5,18.8,30.00,WNW,285,2.7,4.0,9,0.00,,---,0.00,VWS V14.01,2013-07-04 02:11:00,
2013-07-03 20:13:00,83.5,18.8,30.00,NW,323,2.2,4.0,9,0.00,,---,0.00,VWS V14.01,2013-07-04 02:13:00,
2013-07-03 20:14:00,83.3,18.6,30.00,NW,316,3.1,4.0,9,0.00,,---,0.00,VWS V14.01,2013-07-04 02:14:00,
2013-07-03 20:16:00,83.1,18.5,30.00,NNW,330,3.1,3.1,9,0.00,,---,0.00,VWS V14.01,2013-07-04 02:16:00,
2013-07-03 20:17:00,83.1,18.5,30.00,NNW,348,2.7,3.1,9,0.00,,---,0.00,VWS V14.01,2013-07-04 02:17:00,
2013-07-03 20:18:00,82.9,18.4,30.00,NNW,332,4.0,4.0,9,0.00,,---,0.00,VWS V14.01,2013-07-04 02:18:00,
2013-07-03 20:19:00,82.9,18.4,30.00,NNW,332,2.7,4.0,9,0.00,,---,0.00,VWS V14.01,2013-07-04 02:19:00,
2013-07-03 20:22:00,82.8,18.2,30.00,WNW,292,2.7,4.0,9,0.00,,---,0.00,VWS V14.01,2013-07-04 02:22:00,
2013-07-03 20:24:00,82.6,18.1,30.00,NW,319,3.1,4.0,9,0.00,,---,0.00,VWS V14.01,2013-07-04 02:24:00,
2013-07-03 20:29:00,82.2,17.8,30.00,NW,320,2.7,4.0,9,0.00,,---,0.00,VWS V14.01,2013-07-04 02:29:00,
2013-07-03 20:30:00,82.2,17.8,30.00,NW,322,2.2,2.2,9,0.00,,---,0.00,VWS V14.01,2013-07-04 02:30:00,
2013-07-03 20:34:00,81.9,17.6,30.00,NW,317,2.2,3.1,9,0.00,,---,0.00,VWS V14.01,2013-07-04 02:34:00,
2013-07-03 20:35:00,81.9,17.6,30.00,NW,313,2.7,3.1,9,0.00,,---,0.00,VWS V14.01,2013-07-04 02:35:00,
2013-07-03 20:36:00,81.9,17.6,30.00,NW,324,2.2,3.6,9,0.00,,---,0.00,VWS V14.01,2013-07-04 02:36:00,
2013-07-03 20:40:00,81.7,17.4,30.00,NW,319,2.2,3.6,9,0.00,,---,0.00,VWS V14.01,2013-07-04 02:40:00,
2013-07-03 20:41:00,81.5,17.3,30.00,North,349,4.0,4.0,9,0.00,,---,0.00,VWS V14.01,2013-07-04 02:41:00,
2013-07-03 20:45:00,81.3,17.1,30.00,NW,319,2.7,2.7,9,0.00,,---,0.00,VWS V14.01,2013-07-04 02:45:00,
2013-07-03 20:46:00,81.3,17.1,30.00,NW,319,0.0,2.7,9,0.00,,---,0.00,VWS V14.01,2013-07-04 02:46:00,
2013-07-03 20:51:00,81.1,17.0,30.00,NW,312,0.0,3.6,9,0.00,,---,0.00,VWS V14.01,2013-07-04 02:51:00,
2013-07-03 20:52:00,81.0,16.9,30.00,WNW,300,2.2,3.6,9,0.00,,---,0.00,VWS V14.01,2013-07-04 02:52:00,
2013-07-03 20:57:00,80.4,18.9,30.00,West,281,0.0,3.6,10,0.00,,---,0.00,VWS V14.01,2013-07-04 02:57:00,
2013-07-03 21:02:00,79.7,18.4,30.00,West,281,0.0,0.0,10,0.00,,---,0.00,VWS V14.01,2013-07-04 03:02:00,
2013-07-03 21:04:00,79.5,18.2,30.00,West,281,0.0,0.0,10,0.00,,---,0.00,VWS V14.01,2013-07-04 03:04:00,
2013-07-03 21:07:00,79.2,18.0,30.00,West,281,0.0,0.0,10,0.00,,---,0.00,VWS V14.01,2013-07-04 03:07:00,
2013-07-03 21:10:00,78.6,17.5,30.00,West,281,0.0,0.0,10,0.00,,---,0.00,VWS V14.01,2013-07-04 03:10:00,
2013-07-03 21:13:00,78.1,17.1,30.00,West,281,0.0,0.0,10,0.00,,---,0.00,VWS V14.01,2013-07-04 03:13:00,
2013-07-03 21:14:00,78.1,17.1,30.00,West,281,0.0,0.0,10,0.00,,---,0.00,VWS V14.01,2013-07-04 03:14:00,
2013-07-03 21:16:00,77.7,16.9,30.00,West,281,0.0,0.0,10,0.00,,---,0.00,VWS V14.01,2013-07-04 03:16:00,
2013-07-03 21:18:00,77.4,16.6,30.03,West,281,0.0,0.0,10,0.00,,---,0.00,VWS V14.01,2013-07-04 03:18:00,
2013-07-03 21:19:00,77.2,16.5,30.03,West,281,0.0,0.0,10,0.00,,---,0.00,VWS V14.01,2013-07-04 03:19:00,
2013-07-03 21:21:00,77.0,16.3,30.03,West,281,0.0,0.0,10,0.00,,---,0.00,VWS V14.01,2013-07-04 03:21:00,
2013-07-03 21:23:00,76.8,16.2,30.03,West,281,0.0,0.0,10,0.00,,---,0.00,VWS V14.01,2013-07-04 03:23:00,
2013-07-03 21:24:00,76.6,16.0,30.03,West,281,0.0,0.0,10,0.00,,---,0.00,VWS V14.01,2013-07-04 03:24:00,
2013-07-03 21:25:00,76.5,15.9,30.03,West,281,0.0,0.0,10,0.00,,---,0.00,VWS V14.01,2013-07-04 03:25:00,
2013-07-03 21:28:00,76.1,15.6,30.03,West,281,0.0,0.0,10,0.00,,---,0.00,VWS V14.01,2013-07-04 03:28:00,
2013-07-03 21:30:00,76.1,15.6,30.03,West,281,0.0,0.0,10,0.00,,---,0.00,VWS V14.01,2013-07-04 03:30:00,
2013-07-03 21:31:00,75.9,15.5,30.03,West,281,0.0,0.0,10,0.00,,---,0.00,VWS V14.01,2013-07-04 03:31:00,
2013-07-03 21:33:00,75.6,15.2,30.03,West,281,0.0,0.0,10,0.00,,---,0.00,VWS V14.01,2013-07-04 03:33:00,
2013-07-03 21:35:00,75.6,15.2,30.03,West,281,0.0,0.0,10,0.00,,---,0.00,VWS V14.01,2013-07-04 03:35:00,
2013-07-03 21:36:00,75.4,15.1,30.03,West,281,0.0,0.0,10,0.00,,---,0.00,VWS V14.01,2013-07-04 03:36:00,
2013-07-03 21:39:00,75.2,14.9,30.03,West,281,0.0,0.0,10,0.00,,---,0.00,VWS V14.01,2013-07-04 03:39:00,
2013-07-03 21:41:00,75.2,14.9,30.03,West,281,0.0,0.0,10,0.00,,---,0.00,VWS V14.01,2013-07-04 03:41:00,
2013-07-03 21:42:00,75.0,17.0,30.03,West,281,0.0,0.0,11,0.00,,---,0.00,VWS V14.01,2013-07-04 03:42:00,
2013-07-03 21:46:00,74.8,16.9,30.03,West,281,0.0,0.0,11,0.00,,---,0.00,VWS V14.01,2013-07-04 03:46:00,
2013-07-03 21:47:00,74.7,16.7,30.03,West,281,0.0,0.0,11,0.00,,---,0.00,VWS V14.01,2013-07-04 03:47:00,
2013-07-03 21:48:00,74.5,16.6,30.03,West,281,0.0,0.0,11,0.00,,---,0.00,VWS V14.01,2013-07-04 03:48:00,
2013-07-03 21:51:00,74.3,16.4,30.03,West,281,0.0,0.0,11,0.00,,---,0.00,VWS V14.01,2013-07-04 03:51:00,
2013-07-03 21:52:00,74.1,16.3,30.03,West,281,0.0,0.0,11,0.00,,---,0.00,VWS V14.01,2013-07-04 03:52:00,
2013-07-03 21:54:00,74.1,16.3,30.03,West,281,0.0,0.0,11,0.00,,---,0.00,VWS V14.01,2013-07-04 03:54:00,
2013-07-03 21:56:00,73.2,15.6,30.03,West,281,0.0,2.7,11,0.00,,---,0.00,VWS V14.01,2013-07-04 03:56:00,
2013-07-03 21:58:00,73.0,15.5,30.03,West,281,0.0,2.7,11,0.00,,---,0.00,VWS V14.01,2013-07-04 03:58:00,
2013-07-03 21:59:00,72.7,15.2,30.03,West,281,0.0,2.7,11,0.00,,---,0.00,VWS V14.01,2013-07-04 03:59:00,
2013-07-03 22:01:00,72.3,14.9,30.03,West,281,0.0,0.0,11,0.00,,---,0.00,VWS V14.01,2013-07-04 04:01:00,
2013-07-03 22:02:00,72.1,14.8,30.03,West,281,0.0,0.0,11,0.00,,---,0.00,VWS V14.01,2013-07-04 04:02:00,
2013-07-03 22:06:00,72.0,20.2,30.03,WSW,246,0.0,2.7,14,0.00,,---,0.00,VWS V14.01,2013-07-04 04:06:00,
2013-07-03 22:07:00,72.0,20.2,30.03,WSW,246,0.0,2.7,14,0.00,,---,0.00,VWS V14.01,2013-07-04 04:07:00,
2013-07-03 22:11:00,72.0,20.2,30.03,WSW,246,0.0,2.7,14,0.00,,---,0.00,VWS V14.01,2013-07-04 04:11:00,
2013-07-03 22:12:00,72.0,20.2,30.03,South,181,2.7,2.7,14,0.00,,---,0.00,VWS V14.01,2013-07-04 04:12:00,
2013-07-03 22:13:00,72.0,20.2,30.03,SSE,154,2.7,2.7,14,0.00,,---,0.00,VWS V14.01,2013-07-04 04:13:00,
2013-07-03 22:16:00,71.6,19.9,30.03,SSE,154,0.0,2.7,14,0.00,,---,0.00,VWS V14.01,2013-07-04 04:16:00,
2013-07-03 22:17:00,71.6,19.9,30.03,SSE,154,0.0,2.7,14,0.00,,---,0.00,VWS V14.01,2013-07-04 04:17:00,
2013-07-03 22:18:00,71.2,19.6,30.03,SSE,154,2.2,2.7,14,0.00,,---,0.00,VWS V14.01,2013-07-04 04:18:00,
2013-07-03 22:22:00,70.7,23.8,30.03,South,173,2.2,4.0,17,0.00,,---,0.00,VWS V14.01,2013-07-04 04:22:00,
2013-07-03 22:23:00,70.5,26.3,30.03,South,173,2.7,4.0,19,0.00,,---,0.00,VWS V14.01,2013-07-04 04:23:00,
2013-07-03 22:27:00,70.3,26.2,30.03,SSW,195,3.6,4.9,19,0.00,,---,0.00,VWS V14.01,2013-07-04 04:27:00,
2013-07-03 22:28:00,70.3,26.2,30.03,SSW,198,5.4,5.4,19,0.00,,---,0.00,VWS V14.01,2013-07-04 04:28:00,
2013-07-03 22:29:00,70.3,26.2,30.03,SSW,193,4.0,5.4,19,0.00,,---,0.00,VWS V14.01,2013-07-04 04:29:00,
2013-07-03 22:32:00,70.5,26.3,30.03,SSW,193,3.6,5.8,19,0.00,,---,0.00,VWS V14.01,2013-07-04 04:32:00,
2013-07-03 22:33:00,70.5,26.3,30.03,SSW,199,3.6,5.8,19,0.00,,---,0.00,VWS V14.01,2013-07-04 04:33:00,
2013-07-03 22:34:00,70.7,26.5,30.03,SSW,197,4.0,5.8,19,0.00,,---,0.00,VWS V14.01,2013-07-04 04:34:00,
2013-07-03 22:37:00,70.7,26.5,30.03,SSW,194,4.0,5.8,19,0.00,,---,0.00,VWS V14.01,2013-07-04 04:37:00,
2013-07-03 22:38:00,70.7,26.5,30.03,South,191,4.0,5.8,19,0.00,,---,0.00,VWS V14.01,2013-07-04 04:38:00,
2013-07-03 22:40:00,70.5,26.3,30.03,South,189,3.6,5.8,19,0.00,,---,0.00,VWS V14.01,2013-07-04 04:40:00,
2013-07-03 22:43:00,70.3,26.2,30.03,SSW,196,3.6,5.8,19,0.00,,---,0.00,VWS V14.01,2013-07-04 04:43:00,
2013-07-03 22:44:00,70.3,26.2,30.03,South,180,3.6,5.8,19,0.00,,---,0.00,VWS V14.01,2013-07-04 04:44:00,
2013-07-03 22:45:00,70.2,26.0,30.03,South,191,3.1,5.8,19,0.00,,---,0.00,VWS V14.01,2013-07-04 04:45:00,
2013-07-03 22:48:00,69.8,25.7,30.03,South,190,4.0,4.0,19,0.00,,---,0.00,VWS V14.01,2013-07-04 04:48:00,
2013-07-03 22:49:00,69.6,26.8,30.03,SSW,196,4.9,5.4,20,0.00,,---,0.00,VWS V14.01,2013-07-04 04:49:00,
2013-07-03 22:50:00,69.4,29.0,30.03,SSW,203,3.6,5.4,22,0.00,,---,0.00,VWS V14.01,2013-07-04 04:50:00,
2013-07-03 22:53:00,69.1,28.7,30.03,South,191,4.9,5.4,22,0.00,,---,0.00,VWS V14.01,2013-07-04 04:53:00,
2013-07-03 22:54:00,68.9,28.5,30.03,SSW,195,3.6,5.4,22,0.00,,---,0.00,VWS V14.01,2013-07-04 04:54:00,
2013-07-03 22:55:00,68.9,28.5,30.03,SSW,203,3.6,5.4,22,0.00,,---,0.00,VWS V14.01,2013-07-04 04:55:00,
2013-07-03 22:58:00,68.5,28.2,30.03,SSW,195,3.6,5.4,22,0.00,,---,0.00,VWS V14.01,2013-07-04 04:58:00,
2013-07-03 22:59:00,68.4,28.1,30.03,SSW,195,2.7,5.4,22,0.00,,---,0.00,VWS V14.01,2013-07-04 04:59:00,
2013-07-03 23:00:00,68.4,28.1,30.03,SSW,194,3.1,3.1,22,0.00,,---,0.00,VWS V14.01,2013-07-04 05:00:00,
2013-07-03 23:04:00,68.0,27.8,30.03,South,190,3.1,3.1,22,0.00,,---,0.00,VWS V14.01,2013-07-04 05:04:00,
2013-07-03 23:05:00,68.0,27.8,30.03,South,188,0.0,3.1,22,0.00,,---,0.00,VWS V14.01,2013-07-04 05:05:00,
2013-07-03 23:09:00,67.8,28.7,30.03,South,175,0.0,3.1,23,0.00,,---,0.00,VWS V14.01,2013-07-04 05:09:00,
2013-07-03 23:10:00,67.6,28.5,30.03,South,175,2.7,3.1,23,0.00,,---,0.00,VWS V14.01,2013-07-04 05:10:00,
2013-07-03 23:11:00,67.6,28.5,30.03,South,175,0.0,3.1,23,0.00,,---,0.00,VWS V14.01,2013-07-04 05:11:00,
2013-07-03 23:14:00,67.6,28.5,30.03,SSE,167,2.7,3.6,23,0.00,,---,0.00,VWS V14.01,2013-07-04 05:14:00,
2013-07-03 23:15:00,67.6,28.5,30.03,SSE,168,2.7,2.7,23,0.00,,---,0.00,VWS V14.01,2013-07-04 05:15:00,
2013-07-03 23:16:00,67.6,28.5,30.03,SSE,168,0.0,2.7,23,0.00,,---,0.00,VWS V14.01,2013-07-04 05:16:00,
2013-07-03 23:19:00,67.8,28.7,30.03,SSE,166,0.0,2.7,23,0.00,,---,0.00,VWS V14.01,2013-07-04 05:19:00,
2013-07-03 23:20:00,67.8,28.7,30.03,SSE,166,0.0,2.7,23,0.00,,---,0.00,VWS V14.01,2013-07-04 05:20:00,
2013-07-03 23:21:00,67.8,28.7,30.03,SSE,166,0.0,2.7,23,0.00,,---,0.00,VWS V14.01,2013-07-04 05:21:00,
2013-07-03 23:24:00,67.6,28.5,30.03,South,184,3.1,3.1,23,0.00,,---,0.00,VWS V14.01,2013-07-04 05:24:00,
2013-07-03 23:25:00,67.6,28.5,30.03,South,184,3.1,3.1,23,0.00,,---,0.00,VWS V14.01,2013-07-04 05:25:00,
2013-07-03 23:26:00,67.6,28.5,30.03,SSW,192,3.1,3.1,23,0.00,,---,0.00,VWS V14.01,2013-07-04 05:26:00,
2013-07-03 23:29:00,67.6,28.5,30.03,South,190,3.1,3.1,23,0.00,,---,0.00,VWS V14.01,2013-07-04 05:29:00,
2013-07-03 23:30:00,67.6,28.5,30.03,SSW,207,3.1,3.1,23,0.00,,---,0.00,VWS V14.01,2013-07-04 05:30:00,
2013-07-03 23:31:00,67.6,28.5,30.03,SSW,208,3.1,4.0,23,0.00,,---,0.00,VWS V14.01,2013-07-04 05:31:00,
2013-07-03 23:32:00,67.6,28.5,30.03,SSW,208,0.0,4.0,23,0.00,,---,0.00,VWS V14.01,2013-07-04 05:32:00,
2013-07-03 23:34:00,67.8,28.7,30.03,WSW,248,3.1,4.0,23,0.00,,---,0.00,VWS V14.01,2013-07-04 05:34:00,
2013-07-03 23:35:00,67.8,28.7,30.03,WSW,248,2.7,4.0,23,0.00,,---,0.00,VWS V14.01,2013-07-04 05:35:00,
2013-07-03 23:36:00,67.8,28.7,30.03,SW,220,2.2,4.0,23,0.00,,---,0.00,VWS V14.01,2013-07-04 05:36:00,
2013-07-03 23:37:00,67.8,28.7,30.03,SSW,194,3.6,4.0,23,0.00,,---,0.00,VWS V14.01,2013-07-04 05:37:00,
2013-07-03 23:39:00,67.8,28.7,30.03,SSW,202,3.1,4.0,23,0.00,,---,0.00,VWS V14.01,2013-07-04 05:39:00,
2013-07-03 23:40:00,67.8,28.7,30.03,SSW,202,3.1,4.0,23,0.00,,---,0.00,VWS V14.01,2013-07-04 05:40:00,
2013-07-03 23:41:00,68.0,27.8,30.03,SW,216,4.0,5.4,22,0.00,,---,0.00,VWS V14.01,2013-07-04 05:41:00,
2013-07-03 23:42:00,68.2,27.9,30.03,SW,220,0.0,5.4,22,0.00,,---,0.00,VWS V14.01,2013-07-04 05:42:00,
2013-07-03 23:45:00,68.4,28.1,30.03,SSW,192,3.1,5.4,22,0.00,,---,0.00,VWS V14.01,2013-07-04 05:45:00,
2013-07-03 23:46:00,68.5,28.2,30.03,South,191,0.0,3.1,22,0.00,,---,0.00,VWS V14.01,2013-07-04 05:46:00,
2013-07-03 23:47:00,68.5,28.2,30.03,South,191,0.0,3.1,22,0.00,,---,0.00,VWS V14.01,2013-07-04 05:47:00,
2013-07-03 23:50:00,68.5,28.2,30.03,SSE,150,0.0,3.1,22,0.00,,---,0.00,VWS V14.01,2013-07-04 05:50:00,
2013-07-03 23:52:00,68.4,28.1,30.03,SSE,150,0.0,3.1,22,0.00,,---,0.00,VWS V14.01,2013-07-04 05:52:00,
2013-07-03 23:53:00,68.4,28.1,30.03,SSE,150,0.0,3.1,22,0.00,,---,0.00,VWS V14.01,2013-07-04 05:53:00,
2013-07-03 23:55:00,67.8,28.7,30.03,SSE,153,2.2,3.1,23,0.00,,---,0.00,VWS V14.01,2013-07-04 05:55:00,
2013-07-03 23:57:00,67.5,28.4,30.03,SSW,199,3.1,3.6,23,0.00,,---,0.00,VWS V14.01,2013-07-04 05:57:00,
2013-07-03 23:58:00,67.5,28.4,30.03,SSW,198,2.7,3.6,23,0.00,,---,0.00,VWS V14.01,2013-07-04 05:58:00,